<?xml version="1.0" encoding="UTF-8" standalone="no" ?>
<gpx xmlns="http://www.topografix.com/GPX/1/1" xmlns:xsi="http://www.w3.org/2001/XMLSchema-instance" xsi:schemaLocation="http://www.topografix.com/GPX/1/1 http://www.topografix.com/GPX/1/1/gpx.xsd" version="1.1" creator="VisuGPX - https://www.visugpx.com">
  <metadata>
    <name>GRPMelusine_J1_J4</name>
    <desc><![CDATA[gnerando idor: 13423745_12434211_12434219_12434226_12434235]]></desc>
  </metadata>
  <trk>
    <name><![CDATA[GRP_Melusine_145km-12423745]]></name>
    <extensions>
      <line xmlns="http://www.topografix.com/GPX/gpx_style/0/2">
        <color>FFFF00</color>
        <width>4</width>
      </line>
    </extensions>
    <trkseg>
      <trkpt lat="46.65715" lon="-0.91507">
        <ele>73</ele>
        <time>2023-10-30T09:49:46Z</time>
      </trkpt>
      <trkpt lat="46.65835" lon="-0.91557">
        <ele>70</ele>
        <time>2023-10-30T09:52:33Z</time>
      </trkpt>
      <trkpt lat="46.65874" lon="-0.91675">
        <ele>65</ele>
        <time>2023-10-30T09:54:33Z</time>
      </trkpt>
      <trkpt lat="46.65936" lon="-0.91742">
        <ele>63</ele>
        <time>2023-10-30T09:56:16Z</time>
      </trkpt>
      <trkpt lat="46.66154" lon="-0.91625">
        <ele>58</ele>
        <time>2023-10-30T10:01:26Z</time>
      </trkpt>
      <trkpt lat="46.66148" lon="-0.9156">
        <ele>59</ele>
        <time>2023-10-30T10:02:26Z</time>
      </trkpt>
      <trkpt lat="46.66156" lon="-0.91507">
        <ele>58</ele>
        <time>2023-10-30T10:03:15Z</time>
      </trkpt>
      <trkpt lat="46.66192" lon="-0.91472">
        <ele>60</ele>
        <time>2023-10-30T10:04:13Z</time>
      </trkpt>
      <trkpt lat="46.66247" lon="-0.91448">
        <ele>62</ele>
        <time>2023-10-30T10:05:30Z</time>
      </trkpt>
      <trkpt lat="46.66278" lon="-0.91416">
        <ele>63</ele>
        <time>2023-10-30T10:06:20Z</time>
      </trkpt>
      <trkpt lat="46.66297" lon="-0.91366">
        <ele>64</ele>
        <time>2023-10-30T10:07:13Z</time>
      </trkpt>
      <trkpt lat="46.66354" lon="-0.91315">
        <ele>66</ele>
        <time>2023-10-30T10:08:42Z</time>
      </trkpt>
      <trkpt lat="46.66382" lon="-0.91272">
        <ele>68</ele>
        <time>2023-10-30T10:09:36Z</time>
      </trkpt>
      <trkpt lat="46.66471" lon="-0.91115">
        <ele>68</ele>
        <time>2023-10-30T10:12:43Z</time>
      </trkpt>
      <trkpt lat="46.66527" lon="-0.90993">
        <ele>69</ele>
        <time>2023-10-30T10:14:57Z</time>
      </trkpt>
      <trkpt lat="46.66912" lon="-0.90656">
        <ele>83</ele>
        <time>2023-10-30T10:24:57Z</time>
      </trkpt>
      <trkpt lat="46.67469" lon="-0.90111">
        <ele>79</ele>
        <time>2023-10-30T10:39:52Z</time>
      </trkpt>
      <trkpt lat="46.67554" lon="-0.90186">
        <ele>83</ele>
        <time>2023-10-30T10:42:04Z</time>
      </trkpt>
      <trkpt lat="46.67624" lon="-0.90309">
        <ele>86</ele>
        <time>2023-10-30T10:44:31Z</time>
      </trkpt>
      <trkpt lat="46.67688" lon="-0.90369">
        <ele>87</ele>
        <time>2023-10-30T10:46:12Z</time>
      </trkpt>
      <trkpt lat="46.67812" lon="-0.90371">
        <ele>86</ele>
        <time>2023-10-30T10:48:58Z</time>
      </trkpt>
      <trkpt lat="46.67942" lon="-0.90397">
        <ele>82</ele>
        <time>2023-10-30T10:51:53Z</time>
      </trkpt>
      <trkpt lat="46.67856" lon="-0.90073">
        <ele>90</ele>
        <time>2023-10-30T10:57:11Z</time>
      </trkpt>
      <trkpt lat="46.67915" lon="-0.89963">
        <ele>93</ele>
        <time>2023-10-30T10:59:19Z</time>
      </trkpt>
      <trkpt lat="46.6793" lon="-0.89877">
        <ele>97</ele>
        <time>2023-10-30T11:00:40Z</time>
      </trkpt>
      <trkpt lat="46.6798" lon="-0.89727">
        <ele>105</ele>
        <time>2023-10-30T11:03:13Z</time>
      </trkpt>
      <trkpt lat="46.68014" lon="-0.89701">
        <ele>106</ele>
        <time>2023-10-30T11:04:04Z</time>
      </trkpt>
      <trkpt lat="46.68099" lon="-0.89684">
        <ele>105</ele>
        <time>2023-10-30T11:05:58Z</time>
      </trkpt>
      <trkpt lat="46.68173" lon="-0.89684">
        <ele>103</ele>
        <time>2023-10-30T11:07:37Z</time>
      </trkpt>
      <trkpt lat="46.68237" lon="-0.89671">
        <ele>101</ele>
        <time>2023-10-30T11:09:03Z</time>
      </trkpt>
      <trkpt lat="46.68305" lon="-0.89639">
        <ele>97</ele>
        <time>2023-10-30T11:10:39Z</time>
      </trkpt>
      <trkpt lat="46.68346" lon="-0.89562">
        <ele>98</ele>
        <time>2023-10-30T11:12:08Z</time>
      </trkpt>
      <trkpt lat="46.68198" lon="-0.89425">
        <ele>102</ele>
        <time>2023-10-30T11:16:02Z</time>
      </trkpt>
      <trkpt lat="46.68105" lon="-0.89296">
        <ele>107</ele>
        <time>2023-10-30T11:18:53Z</time>
      </trkpt>
      <trkpt lat="46.68096" lon="-0.89253">
        <ele>107</ele>
        <time>2023-10-30T11:19:34Z</time>
      </trkpt>
      <trkpt lat="46.68148" lon="-0.89064">
        <ele>103</ele>
        <time>2023-10-30T11:22:41Z</time>
      </trkpt>
      <trkpt lat="46.68327" lon="-0.88847">
        <ele>103</ele>
        <time>2023-10-30T11:27:52Z</time>
      </trkpt>
      <trkpt lat="46.68373" lon="-0.88761">
        <ele>101</ele>
        <time>2023-10-30T11:29:31Z</time>
      </trkpt>
      <trkpt lat="46.68383" lon="-0.88697">
        <ele>101</ele>
        <time>2023-10-30T11:30:31Z</time>
      </trkpt>
      <trkpt lat="46.68402" lon="-0.88607">
        <ele>106</ele>
        <time>2023-10-30T11:31:58Z</time>
      </trkpt>
      <trkpt lat="46.68229" lon="-0.88545">
        <ele>105</ele>
        <time>2023-10-30T11:35:55Z</time>
      </trkpt>
      <trkpt lat="46.68052" lon="-0.8853">
        <ele>108</ele>
        <time>2023-10-30T11:39:52Z</time>
      </trkpt>
      <trkpt lat="46.67934" lon="-0.88489">
        <ele>110</ele>
        <time>2023-10-30T11:42:34Z</time>
      </trkpt>
      <trkpt lat="46.67946" lon="-0.88386">
        <ele>109</ele>
        <time>2023-10-30T11:44:10Z</time>
      </trkpt>
      <trkpt lat="46.67978" lon="-0.88347">
        <ele>110</ele>
        <time>2023-10-30T11:45:05Z</time>
      </trkpt>
      <trkpt lat="46.67977" lon="-0.88302">
        <ele>110</ele>
        <time>2023-10-30T11:45:46Z</time>
      </trkpt>
      <trkpt lat="46.67959" lon="-0.88223">
        <ele>109</ele>
        <time>2023-10-30T11:47:03Z</time>
      </trkpt>
      <trkpt lat="46.67981" lon="-0.88171">
        <ele>110</ele>
        <time>2023-10-30T11:47:59Z</time>
      </trkpt>
      <trkpt lat="46.67983" lon="-0.88079">
        <ele>112</ele>
        <time>2023-10-30T11:49:23Z</time>
      </trkpt>
      <trkpt lat="46.68006" lon="-0.87942">
        <ele>116</ele>
        <time>2023-10-30T11:51:32Z</time>
      </trkpt>
      <trkpt lat="46.68087" lon="-0.87871">
        <ele>118</ele>
        <time>2023-10-30T11:53:38Z</time>
      </trkpt>
      <trkpt lat="46.68099" lon="-0.878">
        <ele>119</ele>
        <time>2023-10-30T11:54:45Z</time>
      </trkpt>
      <trkpt lat="46.68126" lon="-0.87723">
        <ele>120</ele>
        <time>2023-10-30T11:56:04Z</time>
      </trkpt>
      <trkpt lat="46.68192" lon="-0.87644">
        <ele>121</ele>
        <time>2023-10-30T11:57:58Z</time>
      </trkpt>
      <trkpt lat="46.68271" lon="-0.87538">
        <ele>126</ele>
        <time>2023-10-30T12:00:21Z</time>
      </trkpt>
      <trkpt lat="46.68261" lon="-0.87502">
        <ele>126</ele>
        <time>2023-10-30T12:00:57Z</time>
      </trkpt>
      <trkpt lat="46.68255" lon="-0.87455">
        <ele>126</ele>
        <time>2023-10-30T12:01:41Z</time>
      </trkpt>
      <trkpt lat="46.68282" lon="-0.87403">
        <ele>126</ele>
        <time>2023-10-30T12:02:40Z</time>
      </trkpt>
      <trkpt lat="46.68293" lon="-0.87356">
        <ele>126</ele>
        <time>2023-10-30T12:03:26Z</time>
      </trkpt>
      <trkpt lat="46.6828" lon="-0.87195">
        <ele>124</ele>
        <time>2023-10-30T12:05:54Z</time>
      </trkpt>
      <trkpt lat="46.68277" lon="-0.87107">
        <ele>123</ele>
        <time>2023-10-30T12:07:15Z</time>
      </trkpt>
      <trkpt lat="46.68288" lon="-0.87017">
        <ele>123</ele>
        <time>2023-10-30T12:08:39Z</time>
      </trkpt>
      <trkpt lat="46.68318" lon="-0.86959">
        <ele>124</ele>
        <time>2023-10-30T12:09:45Z</time>
      </trkpt>
      <trkpt lat="46.68351" lon="-0.86867">
        <ele>123</ele>
        <time>2023-10-30T12:11:20Z</time>
      </trkpt>
      <trkpt lat="46.68388" lon="-0.86867">
        <ele>124</ele>
        <time>2023-10-30T12:12:10Z</time>
      </trkpt>
      <trkpt lat="46.68413" lon="-0.8685">
        <ele>125</ele>
        <time>2023-10-30T12:12:46Z</time>
      </trkpt>
      <trkpt lat="46.68552" lon="-0.86667">
        <ele>137</ele>
        <time>2023-10-30T12:16:56Z</time>
      </trkpt>
      <trkpt lat="46.6852" lon="-0.8659">
        <ele>138</ele>
        <time>2023-10-30T12:18:19Z</time>
      </trkpt>
      <trkpt lat="46.68491" lon="-0.86444">
        <ele>138</ele>
        <time>2023-10-30T12:20:38Z</time>
      </trkpt>
      <trkpt lat="46.68379" lon="-0.86137">
        <ele>134</ele>
        <time>2023-10-30T12:25:56Z</time>
      </trkpt>
      <trkpt lat="46.68242" lon="-0.85893">
        <ele>134</ele>
        <time>2023-10-30T12:30:45Z</time>
      </trkpt>
      <trkpt lat="46.68207" lon="-0.85845">
        <ele>131</ele>
        <time>2023-10-30T12:31:49Z</time>
      </trkpt>
      <trkpt lat="46.68236" lon="-0.85697">
        <ele>134</ele>
        <time>2023-10-30T12:34:10Z</time>
      </trkpt>
      <trkpt lat="46.68274" lon="-0.8562">
        <ele>134</ele>
        <time>2023-10-30T12:35:37Z</time>
      </trkpt>
      <trkpt lat="46.68298" lon="-0.85536">
        <ele>134</ele>
        <time>2023-10-30T12:37:00Z</time>
      </trkpt>
      <trkpt lat="46.68315" lon="-0.85315">
        <ele>132</ele>
        <time>2023-10-30T12:40:24Z</time>
      </trkpt>
      <trkpt lat="46.68173" lon="-0.85367">
        <ele>127</ele>
        <time>2023-10-30T12:43:39Z</time>
      </trkpt>
      <trkpt lat="46.68042" lon="-0.85403">
        <ele>122</ele>
        <time>2023-10-30T12:46:37Z</time>
      </trkpt>
      <trkpt lat="46.68018" lon="-0.85397">
        <ele>120</ele>
        <time>2023-10-30T12:47:09Z</time>
      </trkpt>
      <trkpt lat="46.68003" lon="-0.85418">
        <ele>119</ele>
        <time>2023-10-30T12:47:37Z</time>
      </trkpt>
      <trkpt lat="46.67822" lon="-0.85517">
        <ele>112</ele>
        <time>2023-10-30T12:51:55Z</time>
      </trkpt>
      <trkpt lat="46.67737" lon="-0.85406">
        <ele>109</ele>
        <time>2023-10-30T12:54:27Z</time>
      </trkpt>
      <trkpt lat="46.67744" lon="-0.85152">
        <ele>113</ele>
        <time>2023-10-30T12:58:20Z</time>
      </trkpt>
      <trkpt lat="46.67737" lon="-0.84976">
        <ele>114</ele>
        <time>2023-10-30T13:01:02Z</time>
      </trkpt>
      <trkpt lat="46.67687" lon="-0.84848">
        <ele>109</ele>
        <time>2023-10-30T13:03:17Z</time>
      </trkpt>
      <trkpt lat="46.67635" lon="-0.84779">
        <ele>105</ele>
        <time>2023-10-30T13:04:50Z</time>
      </trkpt>
      <trkpt lat="46.67665" lon="-0.84766">
        <ele>107</ele>
        <time>2023-10-30T13:05:32Z</time>
      </trkpt>
      <trkpt lat="46.67691" lon="-0.84715">
        <ele>107</ele>
        <time>2023-10-30T13:06:30Z</time>
      </trkpt>
      <trkpt lat="46.67652" lon="-0.84646">
        <ele>105</ele>
        <time>2023-10-30T13:07:52Z</time>
      </trkpt>
      <trkpt lat="46.67619" lon="-0.84612">
        <ele>104</ele>
        <time>2023-10-30T13:08:46Z</time>
      </trkpt>
      <trkpt lat="46.67618" lon="-0.84586">
        <ele>105</ele>
        <time>2023-10-30T13:09:10Z</time>
      </trkpt>
      <trkpt lat="46.67601" lon="-0.84558">
        <ele>107</ele>
        <time>2023-10-30T13:09:44Z</time>
      </trkpt>
      <trkpt lat="46.67621" lon="-0.84466">
        <ele>112</ele>
        <time>2023-10-30T13:11:13Z</time>
      </trkpt>
      <trkpt lat="46.67637" lon="-0.84431">
        <ele>112</ele>
        <time>2023-10-30T13:11:51Z</time>
      </trkpt>
      <trkpt lat="46.67609" lon="-0.84397">
        <ele>116</ele>
        <time>2023-10-30T13:12:40Z</time>
      </trkpt>
      <trkpt lat="46.67622" lon="-0.84296">
        <ele>119</ele>
        <time>2023-10-30T13:14:14Z</time>
      </trkpt>
      <trkpt lat="46.67572" lon="-0.84107">
        <ele>131</ele>
        <time>2023-10-30T13:17:19Z</time>
      </trkpt>
      <trkpt lat="46.67551" lon="-0.84043">
        <ele>129</ele>
        <time>2023-10-30T13:18:24Z</time>
      </trkpt>
      <trkpt lat="46.67546" lon="-0.83938">
        <ele>128</ele>
        <time>2023-10-30T13:20:01Z</time>
      </trkpt>
      <trkpt lat="46.67572" lon="-0.83713">
        <ele>139</ele>
        <time>2023-10-30T13:23:29Z</time>
      </trkpt>
      <trkpt lat="46.67563" lon="-0.83648">
        <ele>142</ele>
        <time>2023-10-30T13:24:30Z</time>
      </trkpt>
      <trkpt lat="46.67528" lon="-0.83537">
        <ele>146</ele>
        <time>2023-10-30T13:26:22Z</time>
      </trkpt>
      <trkpt lat="46.67463" lon="-0.83391">
        <ele>152</ele>
        <time>2023-10-30T13:29:01Z</time>
      </trkpt>
      <trkpt lat="46.67432" lon="-0.83232">
        <ele>163</ele>
        <time>2023-10-30T13:31:33Z</time>
      </trkpt>
      <trkpt lat="46.67401" lon="-0.83148">
        <ele>168</ele>
        <time>2023-10-30T13:33:00Z</time>
      </trkpt>
      <trkpt lat="46.67389" lon="-0.83095">
        <ele>170</ele>
        <time>2023-10-30T13:33:51Z</time>
      </trkpt>
      <trkpt lat="46.67329" lon="-0.82919">
        <ele>177</ele>
        <time>2023-10-30T13:36:51Z</time>
      </trkpt>
      <trkpt lat="46.67297" lon="-0.82773">
        <ele>176</ele>
        <time>2023-10-30T13:39:11Z</time>
      </trkpt>
      <trkpt lat="46.67253" lon="-0.82665">
        <ele>179</ele>
        <time>2023-10-30T13:41:06Z</time>
      </trkpt>
      <trkpt lat="46.67201" lon="-0.82569">
        <ele>173</ele>
        <time>2023-10-30T13:42:58Z</time>
      </trkpt>
      <trkpt lat="46.6711" lon="-0.82264">
        <ele>176</ele>
        <time>2023-10-30T13:48:03Z</time>
      </trkpt>
      <trkpt lat="46.67079" lon="-0.82185">
        <ele>179</ele>
        <time>2023-10-30T13:49:26Z</time>
      </trkpt>
      <trkpt lat="46.67049" lon="-0.82135">
        <ele>175</ele>
        <time>2023-10-30T13:50:27Z</time>
      </trkpt>
      <trkpt lat="46.67014" lon="-0.82015">
        <ele>176</ele>
        <time>2023-10-30T13:52:27Z</time>
      </trkpt>
      <trkpt lat="46.67014" lon="-0.81966">
        <ele>177</ele>
        <time>2023-10-30T13:53:11Z</time>
      </trkpt>
      <trkpt lat="46.66974" lon="-0.81884">
        <ele>175</ele>
        <time>2023-10-30T13:54:44Z</time>
      </trkpt>
      <trkpt lat="46.6694" lon="-0.81859">
        <ele>171</ele>
        <time>2023-10-30T13:55:34Z</time>
      </trkpt>
      <trkpt lat="46.66946" lon="-0.81794">
        <ele>171</ele>
        <time>2023-10-30T13:56:34Z</time>
      </trkpt>
      <trkpt lat="46.66988" lon="-0.81775">
        <ele>174</ele>
        <time>2023-10-30T13:57:33Z</time>
      </trkpt>
      <trkpt lat="46.6701" lon="-0.81751">
        <ele>172</ele>
        <time>2023-10-30T13:58:10Z</time>
      </trkpt>
      <trkpt lat="46.67018" lon="-0.81719">
        <ele>170</ele>
        <time>2023-10-30T13:58:41Z</time>
      </trkpt>
      <trkpt lat="46.66958" lon="-0.81597">
        <ele>170</ele>
        <time>2023-10-30T14:00:58Z</time>
      </trkpt>
      <trkpt lat="46.66927" lon="-0.81515">
        <ele>171</ele>
        <time>2023-10-30T14:02:24Z</time>
      </trkpt>
      <trkpt lat="46.66886" lon="-0.81457">
        <ele>168</ele>
        <time>2023-10-30T14:03:40Z</time>
      </trkpt>
      <trkpt lat="46.6689" lon="-0.81432">
        <ele>167</ele>
        <time>2023-10-30T14:04:04Z</time>
      </trkpt>
      <trkpt lat="46.66842" lon="-0.81348">
        <ele>165</ele>
        <time>2023-10-30T14:05:44Z</time>
      </trkpt>
      <trkpt lat="46.66855" lon="-0.81303">
        <ele>166</ele>
        <time>2023-10-30T14:06:29Z</time>
      </trkpt>
      <trkpt lat="46.66887" lon="-0.81241">
        <ele>163</ele>
        <time>2023-10-30T14:07:40Z</time>
      </trkpt>
      <trkpt lat="46.66845" lon="-0.81114">
        <ele>161</ele>
        <time>2023-10-30T14:09:49Z</time>
      </trkpt>
      <trkpt lat="46.66842" lon="-0.81058">
        <ele>155</ele>
        <time>2023-10-30T14:10:40Z</time>
      </trkpt>
      <trkpt lat="46.66864" lon="-0.80972">
        <ele>142</ele>
        <time>2023-10-30T14:12:04Z</time>
      </trkpt>
      <trkpt lat="46.66886" lon="-0.80927">
        <ele>136</ele>
        <time>2023-10-30T14:12:55Z</time>
      </trkpt>
      <trkpt lat="46.66801" lon="-0.80893">
        <ele>135</ele>
        <time>2023-10-30T14:14:53Z</time>
      </trkpt>
      <trkpt lat="46.66755" lon="-0.80869">
        <ele>133</ele>
        <time>2023-10-30T14:15:58Z</time>
      </trkpt>
      <trkpt lat="46.6669" lon="-0.80889">
        <ele>128</ele>
        <time>2023-10-30T14:17:26Z</time>
      </trkpt>
      <trkpt lat="46.66631" lon="-0.80895">
        <ele>121</ele>
        <time>2023-10-30T14:18:45Z</time>
      </trkpt>
      <trkpt lat="46.6648" lon="-0.80966">
        <ele>106</ele>
        <time>2023-10-30T14:22:17Z</time>
      </trkpt>
      <trkpt lat="46.66457" lon="-0.80957">
        <ele>105</ele>
        <time>2023-10-30T14:22:49Z</time>
      </trkpt>
      <trkpt lat="46.66416" lon="-0.80912">
        <ele>100</ele>
        <time>2023-10-30T14:23:57Z</time>
      </trkpt>
      <trkpt lat="46.66432" lon="-0.80777">
        <ele>95</ele>
        <time>2023-10-30T14:26:03Z</time>
      </trkpt>
      <trkpt lat="46.6646" lon="-0.80734">
        <ele>96</ele>
        <time>2023-10-30T14:26:57Z</time>
      </trkpt>
      <trkpt lat="46.66463" lon="-0.80706">
        <ele>96</ele>
        <time>2023-10-30T14:27:23Z</time>
      </trkpt>
      <trkpt lat="46.66513" lon="-0.80687">
        <ele>96</ele>
        <time>2023-10-30T14:28:32Z</time>
      </trkpt>
      <trkpt lat="46.6655" lon="-0.80552">
        <ele>95</ele>
        <time>2023-10-30T14:30:45Z</time>
      </trkpt>
      <trkpt lat="46.66544" lon="-0.80485">
        <ele>98</ele>
        <time>2023-10-30T14:31:47Z</time>
      </trkpt>
      <trkpt lat="46.66524" lon="-0.80425">
        <ele>103</ele>
        <time>2023-10-30T14:32:48Z</time>
      </trkpt>
      <trkpt lat="46.66566" lon="-0.80369">
        <ele>105</ele>
        <time>2023-10-30T14:34:04Z</time>
      </trkpt>
      <trkpt lat="46.66614" lon="-0.80335">
        <ele>109</ele>
        <time>2023-10-30T14:35:15Z</time>
      </trkpt>
      <trkpt lat="46.6663" lon="-0.80286">
        <ele>113</ele>
        <time>2023-10-30T14:36:05Z</time>
      </trkpt>
      <trkpt lat="46.66675" lon="-0.80174">
        <ele>120</ele>
        <time>2023-10-30T14:38:04Z</time>
      </trkpt>
      <trkpt lat="46.66695" lon="-0.80146">
        <ele>122</ele>
        <time>2023-10-30T14:38:41Z</time>
      </trkpt>
      <trkpt lat="46.66845" lon="-0.80101">
        <ele>119</ele>
        <time>2023-10-30T14:42:05Z</time>
      </trkpt>
      <trkpt lat="46.66724" lon="-0.79749">
        <ele>126</ele>
        <time>2023-10-30T14:48:06Z</time>
      </trkpt>
      <trkpt lat="46.66767" lon="-0.79657">
        <ele>126</ele>
        <time>2023-10-30T14:49:48Z</time>
      </trkpt>
      <trkpt lat="46.66783" lon="-0.79588">
        <ele>127</ele>
        <time>2023-10-30T14:50:54Z</time>
      </trkpt>
      <trkpt lat="46.6678" lon="-0.79515">
        <ele>126</ele>
        <time>2023-10-30T14:52:01Z</time>
      </trkpt>
      <trkpt lat="46.66786" lon="-0.79404">
        <ele>123</ele>
        <time>2023-10-30T14:53:43Z</time>
      </trkpt>
      <trkpt lat="46.66802" lon="-0.79305">
        <ele>116</ele>
        <time>2023-10-30T14:55:16Z</time>
      </trkpt>
      <trkpt lat="46.66826" lon="-0.79297">
        <ele>116</ele>
        <time>2023-10-30T14:55:49Z</time>
      </trkpt>
      <trkpt lat="46.66882" lon="-0.79256">
        <ele>113</ele>
        <time>2023-10-30T14:57:13Z</time>
      </trkpt>
      <trkpt lat="46.66912" lon="-0.79206">
        <ele>109</ele>
        <time>2023-10-30T14:58:14Z</time>
      </trkpt>
      <trkpt lat="46.66896" lon="-0.79155">
        <ele>106</ele>
        <time>2023-10-30T14:59:05Z</time>
      </trkpt>
      <trkpt lat="46.66882" lon="-0.79067">
        <ele>106</ele>
        <time>2023-10-30T15:00:28Z</time>
      </trkpt>
      <trkpt lat="46.66845" lon="-0.79067">
        <ele>106</ele>
        <time>2023-10-30T15:01:17Z</time>
      </trkpt>
      <trkpt lat="46.66795" lon="-0.79076">
        <ele>105</ele>
        <time>2023-10-30T15:02:24Z</time>
      </trkpt>
      <trkpt lat="46.66752" lon="-0.79037">
        <ele>105</ele>
        <time>2023-10-30T15:03:32Z</time>
      </trkpt>
      <trkpt lat="46.66686" lon="-0.79005">
        <ele>107</ele>
        <time>2023-10-30T15:05:05Z</time>
      </trkpt>
      <trkpt lat="46.66577" lon="-0.79011">
        <ele>109</ele>
        <time>2023-10-30T15:07:30Z</time>
      </trkpt>
      <trkpt lat="46.66493" lon="-0.78983">
        <ele>116</ele>
        <time>2023-10-30T15:09:25Z</time>
      </trkpt>
      <trkpt lat="46.66447" lon="-0.7855">
        <ele>148</ele>
        <time>2023-10-30T15:16:07Z</time>
      </trkpt>
      <trkpt lat="46.66465" lon="-0.78535">
        <ele>148</ele>
        <time>2023-10-30T15:16:34Z</time>
      </trkpt>
      <trkpt lat="46.66485" lon="-0.78503">
        <ele>150</ele>
        <time>2023-10-30T15:17:14Z</time>
      </trkpt>
      <trkpt lat="46.66519" lon="-0.78307">
        <ele>159</ele>
        <time>2023-10-30T15:20:19Z</time>
      </trkpt>
      <trkpt lat="46.66482" lon="-0.78168">
        <ele>167</ele>
        <time>2023-10-30T15:22:36Z</time>
      </trkpt>
      <trkpt lat="46.66491" lon="-0.78099">
        <ele>170</ele>
        <time>2023-10-30T15:23:40Z</time>
      </trkpt>
      <trkpt lat="46.66482" lon="-0.78011">
        <ele>173</ele>
        <time>2023-10-30T15:25:01Z</time>
      </trkpt>
      <trkpt lat="46.66454" lon="-0.77943">
        <ele>175</ele>
        <time>2023-10-30T15:26:14Z</time>
      </trkpt>
      <trkpt lat="46.66465" lon="-0.77887">
        <ele>176</ele>
        <time>2023-10-30T15:27:07Z</time>
      </trkpt>
      <trkpt lat="46.66438" lon="-0.77689">
        <ele>185</ele>
        <time>2023-10-30T15:30:12Z</time>
      </trkpt>
      <trkpt lat="46.66435" lon="-0.77601">
        <ele>185</ele>
        <time>2023-10-30T15:31:33Z</time>
      </trkpt>
      <trkpt lat="46.66438" lon="-0.77507">
        <ele>180</ele>
        <time>2023-10-30T15:32:59Z</time>
      </trkpt>
      <trkpt lat="46.66459" lon="-0.77494">
        <ele>175</ele>
        <time>2023-10-30T15:33:30Z</time>
      </trkpt>
      <trkpt lat="46.66421" lon="-0.77277">
        <ele>166</ele>
        <time>2023-10-30T15:36:55Z</time>
      </trkpt>
      <trkpt lat="46.66382" lon="-0.77177">
        <ele>163</ele>
        <time>2023-10-30T15:38:40Z</time>
      </trkpt>
      <trkpt lat="46.66528" lon="-0.77211">
        <ele>152</ele>
        <time>2023-10-30T15:41:57Z</time>
      </trkpt>
      <trkpt lat="46.66572" lon="-0.772">
        <ele>150</ele>
        <time>2023-10-30T15:42:57Z</time>
      </trkpt>
      <trkpt lat="46.66653" lon="-0.77275">
        <ele>149</ele>
        <time>2023-10-30T15:45:05Z</time>
      </trkpt>
      <trkpt lat="46.66714" lon="-0.77346">
        <ele>152</ele>
        <time>2023-10-30T15:46:49Z</time>
      </trkpt>
      <trkpt lat="46.66918" lon="-0.77185">
        <ele>161</ele>
        <time>2023-10-30T15:51:59Z</time>
      </trkpt>
      <trkpt lat="46.66998" lon="-0.77166">
        <ele>157</ele>
        <time>2023-10-30T15:53:47Z</time>
      </trkpt>
      <trkpt lat="46.67074" lon="-0.77086">
        <ele>146</ele>
        <time>2023-10-30T15:55:52Z</time>
      </trkpt>
      <trkpt lat="46.67148" lon="-0.77086">
        <ele>140</ele>
        <time>2023-10-30T15:57:31Z</time>
      </trkpt>
      <trkpt lat="46.67233" lon="-0.77041">
        <ele>139</ele>
        <time>2023-10-30T15:59:31Z</time>
      </trkpt>
      <trkpt lat="46.67323" lon="-0.76887">
        <ele>150</ele>
        <time>2023-10-30T16:02:37Z</time>
      </trkpt>
      <trkpt lat="46.67415" lon="-0.7678">
        <ele>157</ele>
        <time>2023-10-30T16:05:14Z</time>
      </trkpt>
      <trkpt lat="46.67463" lon="-0.76704">
        <ele>156</ele>
        <time>2023-10-30T16:06:48Z</time>
      </trkpt>
      <trkpt lat="46.67498" lon="-0.76722">
        <ele>156</ele>
        <time>2023-10-30T16:07:38Z</time>
      </trkpt>
      <trkpt lat="46.67526" lon="-0.76726">
        <ele>155</ele>
        <time>2023-10-30T16:08:15Z</time>
      </trkpt>
      <trkpt lat="46.67516" lon="-0.7667">
        <ele>154</ele>
        <time>2023-10-30T16:09:08Z</time>
      </trkpt>
      <trkpt lat="46.67575" lon="-0.76552">
        <ele>145</ele>
        <time>2023-10-30T16:11:22Z</time>
      </trkpt>
      <trkpt lat="46.67585" lon="-0.76468">
        <ele>141</ele>
        <time>2023-10-30T16:12:40Z</time>
      </trkpt>
      <trkpt lat="46.67635" lon="-0.76445">
        <ele>141</ele>
        <time>2023-10-30T16:13:50Z</time>
      </trkpt>
      <trkpt lat="46.67616" lon="-0.76398">
        <ele>140</ele>
        <time>2023-10-30T16:14:40Z</time>
      </trkpt>
      <trkpt lat="46.67553" lon="-0.76383">
        <ele>141</ele>
        <time>2023-10-30T16:16:05Z</time>
      </trkpt>
      <trkpt lat="46.67506" lon="-0.76286">
        <ele>146</ele>
        <time>2023-10-30T16:17:54Z</time>
      </trkpt>
      <trkpt lat="46.6749" lon="-0.76237">
        <ele>148</ele>
        <time>2023-10-30T16:18:44Z</time>
      </trkpt>
      <trkpt lat="46.67484" lon="-0.76159">
        <ele>150</ele>
        <time>2023-10-30T16:19:56Z</time>
      </trkpt>
      <trkpt lat="46.67406" lon="-0.76009">
        <ele>157</ele>
        <time>2023-10-30T16:22:48Z</time>
      </trkpt>
      <trkpt lat="46.67311" lon="-0.75913">
        <ele>157</ele>
        <time>2023-10-30T16:25:22Z</time>
      </trkpt>
      <trkpt lat="46.67289" lon="-0.7584">
        <ele>157</ele>
        <time>2023-10-30T16:26:35Z</time>
      </trkpt>
      <trkpt lat="46.67282" lon="-0.75777">
        <ele>157</ele>
        <time>2023-10-30T16:27:34Z</time>
      </trkpt>
      <trkpt lat="46.67257" lon="-0.75726">
        <ele>156</ele>
        <time>2023-10-30T16:28:31Z</time>
      </trkpt>
      <trkpt lat="46.67188" lon="-0.7567">
        <ele>152</ele>
        <time>2023-10-30T16:30:16Z</time>
      </trkpt>
      <trkpt lat="46.67261" lon="-0.75567">
        <ele>158</ele>
        <time>2023-10-30T16:32:32Z</time>
      </trkpt>
      <trkpt lat="46.67306" lon="-0.75529">
        <ele>163</ele>
        <time>2023-10-30T16:33:41Z</time>
      </trkpt>
      <trkpt lat="46.67363" lon="-0.75453">
        <ele>168</ele>
        <time>2023-10-30T16:35:24Z</time>
      </trkpt>
      <trkpt lat="46.67394" lon="-0.75443">
        <ele>170</ele>
        <time>2023-10-30T16:36:07Z</time>
      </trkpt>
      <trkpt lat="46.67512" lon="-0.75432">
        <ele>175</ele>
        <time>2023-10-30T16:38:45Z</time>
      </trkpt>
      <trkpt lat="46.67447" lon="-0.75247">
        <ele>175</ele>
        <time>2023-10-30T16:41:55Z</time>
      </trkpt>
      <trkpt lat="46.67429" lon="-0.75213">
        <ele>176</ele>
        <time>2023-10-30T16:42:34Z</time>
      </trkpt>
      <trkpt lat="46.67113" lon="-0.74893">
        <ele>166</ele>
        <time>2023-10-30T16:51:08Z</time>
      </trkpt>
      <trkpt lat="46.67054" lon="-0.74784">
        <ele>163</ele>
        <time>2023-10-30T16:53:15Z</time>
      </trkpt>
      <trkpt lat="46.67247" lon="-0.74707">
        <ele>168</ele>
        <time>2023-10-30T16:57:42Z</time>
      </trkpt>
      <trkpt lat="46.67328" lon="-0.74694">
        <ele>173</ele>
        <time>2023-10-30T16:59:31Z</time>
      </trkpt>
      <trkpt lat="46.67397" lon="-0.74698">
        <ele>177</ele>
        <time>2023-10-30T17:01:03Z</time>
      </trkpt>
      <trkpt lat="46.67409" lon="-0.74625">
        <ele>180</ele>
        <time>2023-10-30T17:02:11Z</time>
      </trkpt>
      <trkpt lat="46.67571" lon="-0.74561">
        <ele>191</ele>
        <time>2023-10-30T17:05:55Z</time>
      </trkpt>
      <trkpt lat="46.67585" lon="-0.74567">
        <ele>191</ele>
        <time>2023-10-30T17:06:15Z</time>
      </trkpt>
      <trkpt lat="46.67653" lon="-0.74505">
        <ele>191</ele>
        <time>2023-10-30T17:08:02Z</time>
      </trkpt>
      <trkpt lat="46.6776" lon="-0.74505">
        <ele>190</ele>
        <time>2023-10-30T17:10:25Z</time>
      </trkpt>
      <trkpt lat="46.67803" lon="-0.74496">
        <ele>189</ele>
        <time>2023-10-30T17:11:23Z</time>
      </trkpt>
      <trkpt lat="46.67788" lon="-0.74406">
        <ele>186</ele>
        <time>2023-10-30T17:12:48Z</time>
      </trkpt>
      <trkpt lat="46.67793" lon="-0.7425">
        <ele>179</ele>
        <time>2023-10-30T17:15:11Z</time>
      </trkpt>
      <trkpt lat="46.67844" lon="-0.74097">
        <ele>180</ele>
        <time>2023-10-30T17:17:46Z</time>
      </trkpt>
      <trkpt lat="46.67846" lon="-0.74072">
        <ele>179</ele>
        <time>2023-10-30T17:18:09Z</time>
      </trkpt>
      <trkpt lat="46.67802" lon="-0.73971">
        <ele>173</ele>
        <time>2023-10-30T17:19:59Z</time>
      </trkpt>
      <trkpt lat="46.67864" lon="-0.739">
        <ele>175</ele>
        <time>2023-10-30T17:21:44Z</time>
      </trkpt>
      <trkpt lat="46.67889" lon="-0.73887">
        <ele>176</ele>
        <time>2023-10-30T17:22:19Z</time>
      </trkpt>
      <trkpt lat="46.67933" lon="-0.73853">
        <ele>176</ele>
        <time>2023-10-30T17:23:26Z</time>
      </trkpt>
      <trkpt lat="46.68209" lon="-0.73593">
        <ele>179</ele>
        <time>2023-10-30T17:30:44Z</time>
      </trkpt>
      <trkpt lat="46.68321" lon="-0.73582">
        <ele>181</ele>
        <time>2023-10-30T17:33:14Z</time>
      </trkpt>
      <trkpt lat="46.68326" lon="-0.73456">
        <ele>180</ele>
        <time>2023-10-30T17:35:10Z</time>
      </trkpt>
      <trkpt lat="46.68311" lon="-0.73421">
        <ele>180</ele>
        <time>2023-10-30T17:35:48Z</time>
      </trkpt>
      <trkpt lat="46.68326" lon="-0.73409">
        <ele>181</ele>
        <time>2023-10-30T17:36:10Z</time>
      </trkpt>
      <trkpt lat="46.68396" lon="-0.73415">
        <ele>182</ele>
        <time>2023-10-30T17:37:44Z</time>
      </trkpt>
      <trkpt lat="46.68405" lon="-0.73278">
        <ele>182</ele>
        <time>2023-10-30T17:39:50Z</time>
      </trkpt>
      <trkpt lat="46.68451" lon="-0.73256">
        <ele>183</ele>
        <time>2023-10-30T17:40:55Z</time>
      </trkpt>
      <trkpt lat="46.68486" lon="-0.73258">
        <ele>184</ele>
        <time>2023-10-30T17:41:41Z</time>
      </trkpt>
      <trkpt lat="46.68664" lon="-0.73125">
        <ele>198</ele>
        <time>2023-10-30T17:46:08Z</time>
      </trkpt>
      <trkpt lat="46.68745" lon="-0.73134">
        <ele>200</ele>
        <time>2023-10-30T17:47:57Z</time>
      </trkpt>
      <trkpt lat="46.68817" lon="-0.73117">
        <ele>198</ele>
        <time>2023-10-30T17:49:34Z</time>
      </trkpt>
      <trkpt lat="46.69057" lon="-0.72951">
        <ele>178</ele>
        <time>2023-10-30T17:55:29Z</time>
      </trkpt>
      <trkpt lat="46.68998" lon="-0.7267">
        <ele>182</ele>
        <time>2023-10-30T17:59:58Z</time>
      </trkpt>
      <trkpt lat="46.6895" lon="-0.72565">
        <ele>185</ele>
        <time>2023-10-30T18:01:53Z</time>
      </trkpt>
      <trkpt lat="46.68915" lon="-0.72548">
        <ele>187</ele>
        <time>2023-10-30T18:02:42Z</time>
      </trkpt>
      <trkpt lat="46.68873" lon="-0.7246">
        <ele>192</ele>
        <time>2023-10-30T18:04:20Z</time>
      </trkpt>
      <trkpt lat="46.68831" lon="-0.72391">
        <ele>192</ele>
        <time>2023-10-30T18:05:45Z</time>
      </trkpt>
      <trkpt lat="46.68763" lon="-0.72235">
        <ele>197</ele>
        <time>2023-10-30T18:08:34Z</time>
      </trkpt>
      <trkpt lat="46.68767" lon="-0.72183">
        <ele>197</ele>
        <time>2023-10-30T18:09:22Z</time>
      </trkpt>
      <trkpt lat="46.68728" lon="-0.72168">
        <ele>200</ele>
        <time>2023-10-30T18:10:16Z</time>
      </trkpt>
      <trkpt lat="46.68667" lon="-0.72181">
        <ele>205</ele>
        <time>2023-10-30T18:11:38Z</time>
      </trkpt>
      <trkpt lat="46.6861" lon="-0.72112">
        <ele>210</ele>
        <time>2023-10-30T18:13:17Z</time>
      </trkpt>
      <trkpt lat="46.68561" lon="-0.72125">
        <ele>213</ele>
        <time>2023-10-30T18:14:23Z</time>
      </trkpt>
      <trkpt lat="46.6851" lon="-0.72033">
        <ele>216</ele>
        <time>2023-10-30T18:16:12Z</time>
      </trkpt>
      <trkpt lat="46.68519" lon="-0.71982">
        <ele>216</ele>
        <time>2023-10-30T18:17:00Z</time>
      </trkpt>
      <trkpt lat="46.68578" lon="-0.71952">
        <ele>212</ele>
        <time>2023-10-30T18:18:23Z</time>
      </trkpt>
      <trkpt lat="46.68582" lon="-0.71906">
        <ele>211</ele>
        <time>2023-10-30T18:19:06Z</time>
      </trkpt>
      <trkpt lat="46.68625" lon="-0.71765">
        <ele>202</ele>
        <time>2023-10-30T18:21:27Z</time>
      </trkpt>
      <trkpt lat="46.68664" lon="-0.71707">
        <ele>200</ele>
        <time>2023-10-30T18:22:41Z</time>
      </trkpt>
      <trkpt lat="46.68666" lon="-0.71593">
        <ele>200</ele>
        <time>2023-10-30T18:24:26Z</time>
      </trkpt>
      <trkpt lat="46.68676" lon="-0.71505">
        <ele>200</ele>
        <time>2023-10-30T18:25:47Z</time>
      </trkpt>
      <trkpt lat="46.68695" lon="-0.71415">
        <ele>203</ele>
        <time>2023-10-30T18:27:14Z</time>
      </trkpt>
      <trkpt lat="46.68691" lon="-0.7131">
        <ele>204</ele>
        <time>2023-10-30T18:28:50Z</time>
      </trkpt>
      <trkpt lat="46.68654" lon="-0.71237">
        <ele>205</ele>
        <time>2023-10-30T18:30:13Z</time>
      </trkpt>
      <trkpt lat="46.68573" lon="-0.71089">
        <ele>202</ele>
        <time>2023-10-30T18:33:06Z</time>
      </trkpt>
      <trkpt lat="46.68526" lon="-0.70896">
        <ele>197</ele>
        <time>2023-10-30T18:36:14Z</time>
      </trkpt>
      <trkpt lat="46.68421" lon="-0.70907">
        <ele>192</ele>
        <time>2023-10-30T18:38:34Z</time>
      </trkpt>
      <trkpt lat="46.6831" lon="-0.70831">
        <ele>189</ele>
        <time>2023-10-30T18:41:18Z</time>
      </trkpt>
      <trkpt lat="46.68136" lon="-0.70778">
        <ele>184</ele>
        <time>2023-10-30T18:45:15Z</time>
      </trkpt>
      <trkpt lat="46.68023" lon="-0.7081">
        <ele>185</ele>
        <time>2023-10-30T18:47:49Z</time>
      </trkpt>
      <trkpt lat="46.67865" lon="-0.70844">
        <ele>181</ele>
        <time>2023-10-30T18:51:22Z</time>
      </trkpt>
      <trkpt lat="46.67815" lon="-0.70576">
        <ele>173</ele>
        <time>2023-10-30T18:55:36Z</time>
      </trkpt>
      <trkpt lat="46.67799" lon="-0.70535">
        <ele>175</ele>
        <time>2023-10-30T18:56:19Z</time>
      </trkpt>
      <trkpt lat="46.67738" lon="-0.70495">
        <ele>174</ele>
        <time>2023-10-30T18:57:49Z</time>
      </trkpt>
      <trkpt lat="46.67722" lon="-0.70503">
        <ele>173</ele>
        <time>2023-10-30T18:58:11Z</time>
      </trkpt>
      <trkpt lat="46.67682" lon="-0.70465">
        <ele>173</ele>
        <time>2023-10-30T18:59:15Z</time>
      </trkpt>
      <trkpt lat="46.67656" lon="-0.70426">
        <ele>173</ele>
        <time>2023-10-30T19:00:05Z</time>
      </trkpt>
      <trkpt lat="46.67627" lon="-0.70398">
        <ele>173</ele>
        <time>2023-10-30T19:00:51Z</time>
      </trkpt>
      <trkpt lat="46.67594" lon="-0.70555">
        <ele>177</ele>
        <time>2023-10-30T19:03:21Z</time>
      </trkpt>
      <trkpt lat="46.67535" lon="-0.70677">
        <ele>181</ele>
        <time>2023-10-30T19:05:38Z</time>
      </trkpt>
      <trkpt lat="46.67447" lon="-0.70728">
        <ele>180</ele>
        <time>2023-10-30T19:07:44Z</time>
      </trkpt>
      <trkpt lat="46.67316" lon="-0.70761">
        <ele>179</ele>
        <time>2023-10-30T19:10:42Z</time>
      </trkpt>
      <trkpt lat="46.67217" lon="-0.70801">
        <ele>186</ele>
        <time>2023-10-30T19:12:59Z</time>
      </trkpt>
      <trkpt lat="46.67052" lon="-0.70812">
        <ele>191</ele>
        <time>2023-10-30T19:16:39Z</time>
      </trkpt>
      <trkpt lat="46.66996" lon="-0.70645">
        <ele>192</ele>
        <time>2023-10-30T19:19:30Z</time>
      </trkpt>
      <trkpt lat="46.66912" lon="-0.70576">
        <ele>191</ele>
        <time>2023-10-30T19:21:38Z</time>
      </trkpt>
      <trkpt lat="46.66867" lon="-0.70608">
        <ele>189</ele>
        <time>2023-10-30T19:22:45Z</time>
      </trkpt>
      <trkpt lat="46.66831" lon="-0.7061">
        <ele>188</ele>
        <time>2023-10-30T19:23:33Z</time>
      </trkpt>
      <trkpt lat="46.66806" lon="-0.70563">
        <ele>186</ele>
        <time>2023-10-30T19:24:28Z</time>
      </trkpt>
      <trkpt lat="46.66758" lon="-0.7052">
        <ele>183</ele>
        <time>2023-10-30T19:25:43Z</time>
      </trkpt>
      <trkpt lat="46.66742" lon="-0.70409">
        <ele>183</ele>
        <time>2023-10-30T19:27:27Z</time>
      </trkpt>
      <trkpt lat="46.66753" lon="-0.70377">
        <ele>184</ele>
        <time>2023-10-30T19:27:59Z</time>
      </trkpt>
      <trkpt lat="46.66756" lon="-0.70347">
        <ele>184</ele>
        <time>2023-10-30T19:28:27Z</time>
      </trkpt>
      <trkpt lat="46.66736" lon="-0.70312">
        <ele>183</ele>
        <time>2023-10-30T19:29:09Z</time>
      </trkpt>
      <trkpt lat="46.66697" lon="-0.70362">
        <ele>181</ele>
        <time>2023-10-30T19:30:18Z</time>
      </trkpt>
      <trkpt lat="46.66658" lon="-0.70316">
        <ele>180</ele>
        <time>2023-10-30T19:31:25Z</time>
      </trkpt>
      <trkpt lat="46.66609" lon="-0.70286">
        <ele>178</ele>
        <time>2023-10-30T19:32:36Z</time>
      </trkpt>
      <trkpt lat="46.66516" lon="-0.70192">
        <ele>172</ele>
        <time>2023-10-30T19:35:07Z</time>
      </trkpt>
      <trkpt lat="46.66505" lon="-0.70156">
        <ele>171</ele>
        <time>2023-10-30T19:35:43Z</time>
      </trkpt>
      <trkpt lat="46.66502" lon="-0.70078">
        <ele>169</ele>
        <time>2023-10-30T19:36:55Z</time>
      </trkpt>
      <trkpt lat="46.6648" lon="-0.69954">
        <ele>162</ele>
        <time>2023-10-30T19:38:52Z</time>
      </trkpt>
      <trkpt lat="46.66462" lon="-0.69911">
        <ele>158</ele>
        <time>2023-10-30T19:39:38Z</time>
      </trkpt>
      <trkpt lat="46.6644" lon="-0.6987">
        <ele>155</ele>
        <time>2023-10-30T19:40:26Z</time>
      </trkpt>
      <trkpt lat="46.66404" lon="-0.69866">
        <ele>154</ele>
        <time>2023-10-30T19:41:14Z</time>
      </trkpt>
      <trkpt lat="46.66378" lon="-0.6978">
        <ele>154</ele>
        <time>2023-10-30T19:42:40Z</time>
      </trkpt>
      <trkpt lat="46.66413" lon="-0.69709">
        <ele>159</ele>
        <time>2023-10-30T19:44:00Z</time>
      </trkpt>
      <trkpt lat="46.6644" lon="-0.69688">
        <ele>161</ele>
        <time>2023-10-30T19:44:41Z</time>
      </trkpt>
      <trkpt lat="46.66435" lon="-0.69617">
        <ele>169</ele>
        <time>2023-10-30T19:45:46Z</time>
      </trkpt>
      <trkpt lat="46.66387" lon="-0.69527">
        <ele>173</ele>
        <time>2023-10-30T19:47:31Z</time>
      </trkpt>
      <trkpt lat="46.66346" lon="-0.69366">
        <ele>171</ele>
        <time>2023-10-30T19:50:08Z</time>
      </trkpt>
      <trkpt lat="46.66278" lon="-0.69402">
        <ele>170</ele>
        <time>2023-10-30T19:51:45Z</time>
      </trkpt>
      <trkpt lat="46.6607" lon="-0.6949">
        <ele>164</ele>
        <time>2023-10-30T19:56:34Z</time>
      </trkpt>
      <trkpt lat="46.66139" lon="-0.69714">
        <ele>154</ele>
        <time>2023-10-30T20:00:18Z</time>
      </trkpt>
      <trkpt lat="46.66013" lon="-0.69892">
        <ele>151</ele>
        <time>2023-10-30T20:04:13Z</time>
      </trkpt>
      <trkpt lat="46.65938" lon="-0.70123">
        <ele>148</ele>
        <time>2023-10-30T20:08:07Z</time>
      </trkpt>
      <trkpt lat="46.65843" lon="-0.70334">
        <ele>149</ele>
        <time>2023-10-30T20:11:58Z</time>
      </trkpt>
      <trkpt lat="46.65776" lon="-0.7054">
        <ele>144</ele>
        <time>2023-10-30T20:15:27Z</time>
      </trkpt>
      <trkpt lat="46.65698" lon="-0.70587">
        <ele>136</ele>
        <time>2023-10-30T20:17:19Z</time>
      </trkpt>
      <trkpt lat="46.65674" lon="-0.70563">
        <ele>137</ele>
        <time>2023-10-30T20:17:58Z</time>
      </trkpt>
      <trkpt lat="46.65531" lon="-0.7054">
        <ele>133</ele>
        <time>2023-10-30T20:21:10Z</time>
      </trkpt>
      <trkpt lat="46.65541" lon="-0.70583">
        <ele>132</ele>
        <time>2023-10-30T20:21:52Z</time>
      </trkpt>
      <trkpt lat="46.65485" lon="-0.70619">
        <ele>133</ele>
        <time>2023-10-30T20:23:13Z</time>
      </trkpt>
      <trkpt lat="46.65477" lon="-0.70671">
        <ele>132</ele>
        <time>2023-10-30T20:24:02Z</time>
      </trkpt>
      <trkpt lat="46.65446" lon="-0.70728">
        <ele>132</ele>
        <time>2023-10-30T20:25:09Z</time>
      </trkpt>
      <trkpt lat="46.65409" lon="-0.7075">
        <ele>133</ele>
        <time>2023-10-30T20:26:02Z</time>
      </trkpt>
      <trkpt lat="46.65329" lon="-0.70756">
        <ele>132</ele>
        <time>2023-10-30T20:27:49Z</time>
      </trkpt>
      <trkpt lat="46.65265" lon="-0.70728">
        <ele>134</ele>
        <time>2023-10-30T20:29:18Z</time>
      </trkpt>
      <trkpt lat="46.65232" lon="-0.70778">
        <ele>131</ele>
        <time>2023-10-30T20:30:22Z</time>
      </trkpt>
      <trkpt lat="46.65191" lon="-0.70859">
        <ele>128</ele>
        <time>2023-10-30T20:31:54Z</time>
      </trkpt>
      <trkpt lat="46.65148" lon="-0.7087">
        <ele>127</ele>
        <time>2023-10-30T20:32:52Z</time>
      </trkpt>
      <trkpt lat="46.65135" lon="-0.7084">
        <ele>127</ele>
        <time>2023-10-30T20:33:25Z</time>
      </trkpt>
      <trkpt lat="46.65151" lon="-0.70756">
        <ele>134</ele>
        <time>2023-10-30T20:34:44Z</time>
      </trkpt>
      <trkpt lat="46.65185" lon="-0.70728">
        <ele>136</ele>
        <time>2023-10-30T20:35:37Z</time>
      </trkpt>
      <trkpt lat="46.65158" lon="-0.7064">
        <ele>140</ele>
        <time>2023-10-30T20:37:05Z</time>
      </trkpt>
      <trkpt lat="46.65166" lon="-0.70589">
        <ele>143</ele>
        <time>2023-10-30T20:37:53Z</time>
      </trkpt>
      <trkpt lat="46.6534" lon="-0.70269">
        <ele>150</ele>
        <time>2023-10-30T20:44:07Z</time>
      </trkpt>
      <trkpt lat="46.65434" lon="-0.70203">
        <ele>146</ele>
        <time>2023-10-30T20:46:26Z</time>
      </trkpt>
      <trkpt lat="46.65409" lon="-0.6993">
        <ele>151</ele>
        <time>2023-10-30T20:50:38Z</time>
      </trkpt>
      <trkpt lat="46.65347" lon="-0.69735">
        <ele>149</ele>
        <time>2023-10-30T20:53:55Z</time>
      </trkpt>
      <trkpt lat="46.65354" lon="-0.69587">
        <ele>143</ele>
        <time>2023-10-30T20:56:11Z</time>
      </trkpt>
      <trkpt lat="46.65334" lon="-0.69477">
        <ele>140</ele>
        <time>2023-10-30T20:57:55Z</time>
      </trkpt>
      <trkpt lat="46.65359" lon="-0.69323">
        <ele>134</ele>
        <time>2023-10-30T21:00:20Z</time>
      </trkpt>
      <trkpt lat="46.65384" lon="-0.69218">
        <ele>133</ele>
        <time>2023-10-30T21:02:02Z</time>
      </trkpt>
      <trkpt lat="46.65394" lon="-0.69151">
        <ele>131</ele>
        <time>2023-10-30T21:03:05Z</time>
      </trkpt>
      <trkpt lat="46.65372" lon="-0.69025">
        <ele>129</ele>
        <time>2023-10-30T21:05:04Z</time>
      </trkpt>
      <trkpt lat="46.65381" lon="-0.68963">
        <ele>130</ele>
        <time>2023-10-30T21:06:02Z</time>
      </trkpt>
      <trkpt lat="46.65432" lon="-0.68883">
        <ele>131</ele>
        <time>2023-10-30T21:07:42Z</time>
      </trkpt>
      <trkpt lat="46.65469" lon="-0.6881">
        <ele>132</ele>
        <time>2023-10-30T21:09:05Z</time>
      </trkpt>
      <trkpt lat="46.65434" lon="-0.68623">
        <ele>137</ele>
        <time>2023-10-30T21:12:03Z</time>
      </trkpt>
      <trkpt lat="46.6544" lon="-0.68448">
        <ele>141</ele>
        <time>2023-10-30T21:14:43Z</time>
      </trkpt>
      <trkpt lat="46.65422" lon="-0.68379">
        <ele>143</ele>
        <time>2023-10-30T21:15:51Z</time>
      </trkpt>
      <trkpt lat="46.65393" lon="-0.68321">
        <ele>144</ele>
        <time>2023-10-30T21:16:56Z</time>
      </trkpt>
      <trkpt lat="46.65382" lon="-0.68267">
        <ele>146</ele>
        <time>2023-10-30T21:17:48Z</time>
      </trkpt>
      <trkpt lat="46.6545" lon="-0.68216">
        <ele>148</ele>
        <time>2023-10-30T21:19:30Z</time>
      </trkpt>
      <trkpt lat="46.65438" lon="-0.68044">
        <ele>151</ele>
        <time>2023-10-30T21:22:08Z</time>
      </trkpt>
      <trkpt lat="46.65438" lon="-0.67851">
        <ele>156</ele>
        <time>2023-10-30T21:25:05Z</time>
      </trkpt>
      <trkpt lat="46.65404" lon="-0.67716">
        <ele>157</ele>
        <time>2023-10-30T21:27:17Z</time>
      </trkpt>
      <trkpt lat="46.65485" lon="-0.67544">
        <ele>167</ele>
        <time>2023-10-30T21:30:28Z</time>
      </trkpt>
      <trkpt lat="46.6502" lon="-0.67377">
        <ele>164</ele>
        <time>2023-10-30T21:41:07Z</time>
      </trkpt>
      <trkpt lat="46.64201" lon="-0.67475">
        <ele>163</ele>
        <time>2023-10-30T21:59:24Z</time>
      </trkpt>
      <trkpt lat="46.63948" lon="-0.66802">
        <ele>170</ele>
        <time>2023-10-30T22:11:07Z</time>
      </trkpt>
      <trkpt lat="46.63188" lon="-0.66244">
        <ele>131</ele>
        <time>2023-10-30T22:30:03Z</time>
      </trkpt>
      <trkpt lat="46.62975" lon="-0.66321">
        <ele>121</ele>
        <time>2023-10-30T22:34:55Z</time>
      </trkpt>
      <trkpt lat="46.62569" lon="-0.66716">
        <ele>121</ele>
        <time>2023-10-30T22:45:47Z</time>
      </trkpt>
      <trkpt lat="46.62557" lon="-0.66502">
        <ele>117</ele>
        <time>2023-10-30T22:49:04Z</time>
      </trkpt>
      <trkpt lat="46.62681" lon="-0.66296">
        <ele>116</ele>
        <time>2023-10-30T22:53:15Z</time>
      </trkpt>
      <trkpt lat="46.62262" lon="-0.6615">
        <ele>126</ele>
        <time>2023-10-30T23:02:50Z</time>
      </trkpt>
      <trkpt lat="46.62003" lon="-0.65798">
        <ele>125</ele>
        <time>2023-10-30T23:10:43Z</time>
      </trkpt>
      <trkpt lat="46.61584" lon="-0.65738">
        <ele>119</ele>
        <time>2023-10-30T23:20:04Z</time>
      </trkpt>
      <trkpt lat="46.61313" lon="-0.6542">
        <ele>117</ele>
        <time>2023-10-30T23:27:49Z</time>
      </trkpt>
      <trkpt lat="46.61" lon="-0.65746">
        <ele>113</ele>
        <time>2023-10-30T23:36:22Z</time>
      </trkpt>
      <trkpt lat="46.60818" lon="-0.65695">
        <ele>103</ele>
        <time>2023-10-30T23:40:30Z</time>
      </trkpt>
      <trkpt lat="46.60806" lon="-0.6554">
        <ele>100</ele>
        <time>2023-10-30T23:42:53Z</time>
      </trkpt>
      <trkpt lat="46.60635" lon="-0.65575">
        <ele>101</ele>
        <time>2023-10-30T23:46:43Z</time>
      </trkpt>
      <trkpt lat="46.60735" lon="-0.65317">
        <ele>111</ele>
        <time>2023-10-30T23:51:15Z</time>
      </trkpt>
      <trkpt lat="46.60546" lon="-0.64931">
        <ele>109</ele>
        <time>2023-10-30T23:58:29Z</time>
      </trkpt>
      <trkpt lat="46.60611" lon="-0.64768">
        <ele>116</ele>
        <time>2023-10-31T00:01:22Z</time>
      </trkpt>
      <trkpt lat="46.60535" lon="-0.64536">
        <ele>116</ele>
        <time>2023-10-31T00:05:18Z</time>
      </trkpt>
      <trkpt lat="46.60912" lon="-0.64313">
        <ele>124</ele>
        <time>2023-10-31T00:14:21Z</time>
      </trkpt>
      <trkpt lat="46.61266" lon="-0.63695">
        <ele>138</ele>
        <time>2023-10-31T00:26:38Z</time>
      </trkpt>
      <trkpt lat="46.6116" lon="-0.63455">
        <ele>125</ele>
        <time>2023-10-31T00:31:00Z</time>
      </trkpt>
      <trkpt lat="46.60942" lon="-0.63515">
        <ele>114</ele>
        <time>2023-10-31T00:35:56Z</time>
      </trkpt>
      <trkpt lat="46.60871" lon="-0.62828">
        <ele>136</ele>
        <time>2023-10-31T00:46:33Z</time>
      </trkpt>
      <trkpt lat="46.59892" lon="-0.62416">
        <ele>115</ele>
        <time>2023-10-31T01:09:13Z</time>
      </trkpt>
      <trkpt lat="46.59349" lon="-0.62622">
        <ele>104</ele>
        <time>2023-10-31T01:21:42Z</time>
      </trkpt>
      <trkpt lat="46.59373" lon="-0.62811">
        <ele>113</ele>
        <time>2023-10-31T01:24:38Z</time>
      </trkpt>
      <trkpt lat="46.59125" lon="-0.62948">
        <ele>99</ele>
        <time>2023-10-31T01:30:32Z</time>
      </trkpt>
      <trkpt lat="46.58931" lon="-0.63704">
        <ele>98</ele>
        <time>2023-10-31T01:42:52Z</time>
      </trkpt>
      <trkpt lat="46.58754" lon="-0.63695">
        <ele>88</ele>
        <time>2023-10-31T01:46:48Z</time>
      </trkpt>
      <trkpt lat="46.58518" lon="-0.64073">
        <ele>89</ele>
        <time>2023-10-31T01:54:37Z</time>
      </trkpt>
      <trkpt lat="46.58205" lon="-0.64219">
        <ele>99</ele>
        <time>2023-10-31T02:01:55Z</time>
      </trkpt>
      <trkpt lat="46.58175" lon="-0.63995">
        <ele>104</ele>
        <time>2023-10-31T02:05:25Z</time>
      </trkpt>
      <trkpt lat="46.57904" lon="-0.64313">
        <ele>100</ele>
        <time>2023-10-31T02:13:09Z</time>
      </trkpt>
      <trkpt lat="46.5781" lon="-0.64098">
        <ele>108</ele>
        <time>2023-10-31T02:17:03Z</time>
      </trkpt>
      <trkpt lat="46.57355" lon="-0.64073">
        <ele>106</ele>
        <time>2023-10-31T02:27:11Z</time>
      </trkpt>
      <trkpt lat="46.56904" lon="-0.63544">
        <ele>83</ele>
        <time>2023-10-31T02:40:04Z</time>
      </trkpt>
      <trkpt lat="46.56877" lon="-0.64279">
        <ele>84</ele>
        <time>2023-10-31T02:51:19Z</time>
      </trkpt>
      <trkpt lat="46.56636" lon="-0.64991">
        <ele>85</ele>
        <time>2023-10-31T03:03:27Z</time>
      </trkpt>
      <trkpt lat="46.56624" lon="-0.6548">
        <ele>79</ele>
        <time>2023-10-31T03:10:56Z</time>
      </trkpt>
      <trkpt lat="46.56842" lon="-0.6603">
        <ele>98</ele>
        <time>2023-10-31T03:20:38Z</time>
      </trkpt>
      <trkpt lat="46.567" lon="-0.66141">
        <ele>93</ele>
        <time>2023-10-31T03:24:14Z</time>
      </trkpt>
      <trkpt lat="46.56759" lon="-0.66562">
        <ele>92</ele>
        <time>2023-10-31T03:30:48Z</time>
      </trkpt>
      <trkpt lat="46.56653" lon="-0.66811">
        <ele>93</ele>
        <time>2023-10-31T03:35:17Z</time>
      </trkpt>
      <trkpt lat="46.56329" lon="-0.67017">
        <ele>115</ele>
        <time>2023-10-31T03:43:08Z</time>
      </trkpt>
      <trkpt lat="46.56146" lon="-0.66733">
        <ele>116</ele>
        <time>2023-10-31T03:49:05Z</time>
      </trkpt>
      <trkpt lat="46.5598" lon="-0.67111">
        <ele>117</ele>
        <time>2023-10-31T03:55:57Z</time>
      </trkpt>
      <trkpt lat="46.56134" lon="-0.67437">
        <ele>116</ele>
        <time>2023-10-31T04:02:00Z</time>
      </trkpt>
      <trkpt lat="46.56116" lon="-0.67789">
        <ele>119</ele>
        <time>2023-10-31T04:07:24Z</time>
      </trkpt>
      <trkpt lat="46.55904" lon="-0.68536">
        <ele>109</ele>
        <time>2023-10-31T04:19:45Z</time>
      </trkpt>
      <trkpt lat="46.55662" lon="-0.69059">
        <ele>105</ele>
        <time>2023-10-31T04:29:24Z</time>
      </trkpt>
      <trkpt lat="46.55706" lon="-0.69548">
        <ele>112</ele>
        <time>2023-10-31T04:36:56Z</time>
      </trkpt>
      <trkpt lat="46.55603" lon="-0.70201">
        <ele>109</ele>
        <time>2023-10-31T04:47:11Z</time>
      </trkpt>
      <trkpt lat="46.55278" lon="-0.70767">
        <ele>96</ele>
        <time>2023-10-31T04:58:28Z</time>
      </trkpt>
      <trkpt lat="46.54694" lon="-0.70098">
        <ele>94</ele>
        <time>2023-10-31T05:15:00Z</time>
      </trkpt>
      <trkpt lat="46.54446" lon="-0.70175">
        <ele>90</ele>
        <time>2023-10-31T05:20:38Z</time>
      </trkpt>
      <trkpt lat="46.53855" lon="-0.69695">
        <ele>86</ele>
        <time>2023-10-31T05:35:42Z</time>
      </trkpt>
      <trkpt lat="46.53714" lon="-0.6978">
        <ele>88</ele>
        <time>2023-10-31T05:39:05Z</time>
      </trkpt>
      <trkpt lat="46.53466" lon="-0.69145">
        <ele>91</ele>
        <time>2023-10-31T05:50:16Z</time>
      </trkpt>
      <trkpt lat="46.53277" lon="-0.6918">
        <ele>92</ele>
        <time>2023-10-31T05:54:30Z</time>
      </trkpt>
      <trkpt lat="46.53241" lon="-0.68776">
        <ele>95</ele>
        <time>2023-10-31T06:00:44Z</time>
      </trkpt>
      <trkpt lat="46.53111" lon="-0.68295">
        <ele>85</ele>
        <time>2023-10-31T06:08:38Z</time>
      </trkpt>
      <trkpt lat="46.52946" lon="-0.68364">
        <ele>88</ele>
        <time>2023-10-31T06:12:27Z</time>
      </trkpt>
      <trkpt lat="46.52875" lon="-0.68591">
        <ele>92</ele>
        <time>2023-10-31T06:16:16Z</time>
      </trkpt>
      <trkpt lat="46.52834" lon="-0.6845">
        <ele>88</ele>
        <time>2023-10-31T06:18:37Z</time>
      </trkpt>
      <trkpt lat="46.52409" lon="-0.6863">
        <ele>89</ele>
        <time>2023-10-31T06:28:28Z</time>
      </trkpt>
      <trkpt lat="46.51535" lon="-0.69222">
        <ele>83</ele>
        <time>2023-10-31T06:49:54Z</time>
      </trkpt>
      <trkpt lat="46.5147" lon="-0.69077">
        <ele>81</ele>
        <time>2023-10-31T06:52:33Z</time>
      </trkpt>
      <trkpt lat="46.50217" lon="-0.6918">
        <ele>70</ele>
        <time>2023-10-31T07:20:28Z</time>
      </trkpt>
      <trkpt lat="46.5007" lon="-0.68785">
        <ele>60</ele>
        <time>2023-10-31T07:27:21Z</time>
      </trkpt>
      <trkpt lat="46.49987" lon="-0.68845">
        <ele>58</ele>
        <time>2023-10-31T07:29:24Z</time>
      </trkpt>
      <trkpt lat="46.49697" lon="-0.68441">
        <ele>55</ele>
        <time>2023-10-31T07:38:21Z</time>
      </trkpt>
      <trkpt lat="46.48581" lon="-0.67763">
        <ele>83</ele>
        <time>2023-10-31T08:05:15Z</time>
      </trkpt>
      <trkpt lat="46.48007" lon="-0.67042">
        <ele>64</ele>
        <time>2023-10-31T08:22:08Z</time>
      </trkpt>
      <trkpt lat="46.47854" lon="-0.66167">
        <ele>52</ele>
        <time>2023-10-31T08:35:57Z</time>
      </trkpt>
      <trkpt lat="46.47564" lon="-0.65738">
        <ele>51</ele>
        <time>2023-10-31T08:45:10Z</time>
      </trkpt>
      <trkpt lat="46.46725" lon="-0.65334">
        <ele>46</ele>
        <time>2023-10-31T09:04:49Z</time>
      </trkpt>
      <trkpt lat="46.46361" lon="-0.65484">
        <ele>20</ele>
        <time>2023-10-31T09:13:14Z</time>
      </trkpt>
      <trkpt lat="46.46595" lon="-0.66304">
        <ele>24</ele>
        <time>2023-10-31T09:26:50Z</time>
      </trkpt>
      <trkpt lat="46.46997" lon="-0.66648">
        <ele>50</ele>
        <time>2023-10-31T09:37:13Z</time>
      </trkpt>
      <trkpt lat="46.46754" lon="-0.67746">
        <ele>42</ele>
        <time>2023-10-31T09:54:53Z</time>
      </trkpt>
      <trkpt lat="46.47464" lon="-0.68699">
        <ele>47</ele>
        <time>2023-10-31T10:16:23Z</time>
      </trkpt>
      <trkpt lat="46.47789" lon="-0.68682">
        <ele>59</ele>
        <time>2023-10-31T10:23:37Z</time>
      </trkpt>
      <trkpt lat="46.47783" lon="-0.68913">
        <ele>62</ele>
        <time>2023-10-31T10:27:09Z</time>
      </trkpt>
      <trkpt lat="46.48102" lon="-0.69162">
        <ele>77</ele>
        <time>2023-10-31T10:35:13Z</time>
      </trkpt>
      <trkpt lat="46.47735" lon="-0.69394">
        <ele>60</ele>
        <time>2023-10-31T10:44:07Z</time>
      </trkpt>
      <trkpt lat="46.47747" lon="-0.69566">
        <ele>59</ele>
        <time>2023-10-31T10:46:46Z</time>
      </trkpt>
      <trkpt lat="46.47564" lon="-0.69523">
        <ele>56</ele>
        <time>2023-10-31T10:50:53Z</time>
      </trkpt>
      <trkpt lat="46.47605" lon="-0.69978">
        <ele>56</ele>
        <time>2023-10-31T10:57:55Z</time>
      </trkpt>
      <trkpt lat="46.47334" lon="-0.70107">
        <ele>58</ele>
        <time>2023-10-31T11:04:15Z</time>
      </trkpt>
      <trkpt lat="46.47215" lon="-0.70647">
        <ele>63</ele>
        <time>2023-10-31T11:12:56Z</time>
      </trkpt>
      <trkpt lat="46.47404" lon="-0.70596">
        <ele>59</ele>
        <time>2023-10-31T11:17:13Z</time>
      </trkpt>
      <trkpt lat="46.47564" lon="-0.7081">
        <ele>51</ele>
        <time>2023-10-31T11:22:03Z</time>
      </trkpt>
      <trkpt lat="46.4754" lon="-0.71179">
        <ele>52</ele>
        <time>2023-10-31T11:27:44Z</time>
      </trkpt>
      <trkpt lat="46.46914" lon="-0.71437">
        <ele>55</ele>
        <time>2023-10-31T11:42:12Z</time>
      </trkpt>
      <trkpt lat="46.46914" lon="-0.72664">
        <ele>67</ele>
        <time>2023-10-31T12:01:00Z</time>
      </trkpt>
      <trkpt lat="46.4702" lon="-0.72879">
        <ele>68</ele>
        <time>2023-10-31T12:05:03Z</time>
      </trkpt>
      <trkpt lat="46.47363" lon="-0.72321">
        <ele>59</ele>
        <time>2023-10-31T12:16:30Z</time>
      </trkpt>
      <trkpt lat="46.47334" lon="-0.72244">
        <ele>60</ele>
        <time>2023-10-31T12:17:51Z</time>
      </trkpt>
      <trkpt lat="46.47399" lon="-0.72106">
        <ele>56</ele>
        <time>2023-10-31T12:20:25Z</time>
      </trkpt>
      <trkpt lat="46.47907" lon="-0.7299">
        <ele>69</ele>
        <time>2023-10-31T12:38:03Z</time>
      </trkpt>
      <trkpt lat="46.47996" lon="-0.73377">
        <ele>83</ele>
        <time>2023-10-31T12:44:18Z</time>
      </trkpt>
      <trkpt lat="46.48096" lon="-0.73299">
        <ele>87</ele>
        <time>2023-10-31T12:46:49Z</time>
      </trkpt>
      <trkpt lat="46.4835" lon="-0.73797">
        <ele>79</ele>
        <time>2023-10-31T12:56:19Z</time>
      </trkpt>
      <trkpt lat="46.48409" lon="-0.7408">
        <ele>83</ele>
        <time>2023-10-31T13:00:50Z</time>
      </trkpt>
      <trkpt lat="46.47996" lon="-0.74587">
        <ele>85</ele>
        <time>2023-10-31T13:12:52Z</time>
      </trkpt>
      <trkpt lat="46.48321" lon="-0.75171">
        <ele>86</ele>
        <time>2023-10-31T13:24:22Z</time>
      </trkpt>
      <trkpt lat="46.48539" lon="-0.75205">
        <ele>91</ele>
        <time>2023-10-31T13:29:15Z</time>
      </trkpt>
      <trkpt lat="46.48451" lon="-0.75437">
        <ele>83</ele>
        <time>2023-10-31T13:33:18Z</time>
      </trkpt>
      <trkpt lat="46.48622" lon="-0.756">
        <ele>84</ele>
        <time>2023-10-31T13:37:51Z</time>
      </trkpt>
      <trkpt lat="46.48581" lon="-0.7614">
        <ele>65</ele>
        <time>2023-10-31T13:46:10Z</time>
      </trkpt>
      <trkpt lat="46.48084" lon="-0.7663">
        <ele>41</ele>
        <time>2023-10-31T13:59:32Z</time>
      </trkpt>
      <trkpt lat="46.48232" lon="-0.77136">
        <ele>50</ele>
        <time>2023-10-31T14:07:57Z</time>
      </trkpt>
      <trkpt lat="46.48888" lon="-0.76261">
        <ele>79</ele>
        <time>2023-10-31T14:27:45Z</time>
      </trkpt>
      <trkpt lat="46.49296" lon="-0.76578">
        <ele>80</ele>
        <time>2023-10-31T14:38:03Z</time>
      </trkpt>
      <trkpt lat="46.49319" lon="-0.76818">
        <ele>70</ele>
        <time>2023-10-31T14:41:45Z</time>
      </trkpt>
      <trkpt lat="46.49473" lon="-0.77024">
        <ele>84</ele>
        <time>2023-10-31T14:46:25Z</time>
      </trkpt>
      <trkpt lat="46.49491" lon="-0.77351">
        <ele>82</ele>
        <time>2023-10-31T14:51:26Z</time>
      </trkpt>
      <trkpt lat="46.4965" lon="-0.77436">
        <ele>80</ele>
        <time>2023-10-31T14:55:12Z</time>
      </trkpt>
      <trkpt lat="46.49455" lon="-0.78192">
        <ele>75</ele>
        <time>2023-10-31T15:07:34Z</time>
      </trkpt>
      <trkpt lat="46.49502" lon="-0.78355">
        <ele>75</ele>
        <time>2023-10-31T15:10:16Z</time>
      </trkpt>
      <trkpt lat="46.49627" lon="-0.7826">
        <ele>74</ele>
        <time>2023-10-31T15:13:25Z</time>
      </trkpt>
      <trkpt lat="46.50058" lon="-0.78604">
        <ele>39</ele>
        <time>2023-10-31T15:24:21Z</time>
      </trkpt>
      <trkpt lat="46.49946" lon="-0.78346">
        <ele>46</ele>
        <time>2023-10-31T15:29:01Z</time>
      </trkpt>
      <trkpt lat="46.50117" lon="-0.78432">
        <ele>27</ele>
        <time>2023-10-31T15:33:02Z</time>
      </trkpt>
      <trkpt lat="46.50383" lon="-0.79316">
        <ele>38</ele>
        <time>2023-10-31T15:47:49Z</time>
      </trkpt>
      <trkpt lat="46.50153" lon="-0.79392">
        <ele>25</ele>
        <time>2023-10-31T15:53:03Z</time>
      </trkpt>
      <trkpt lat="46.50013" lon="-0.79514">
        <ele>21</ele>
        <time>2023-10-31T15:56:41Z</time>
      </trkpt>
      <trkpt lat="46.50045" lon="-0.79626">
        <ele>34</ele>
        <time>2023-10-31T15:58:33Z</time>
      </trkpt>
      <trkpt lat="46.50147" lon="-0.7965">
        <ele>46</ele>
        <time>2023-10-31T16:00:51Z</time>
      </trkpt>
      <trkpt lat="46.50631" lon="-0.79505">
        <ele>88</ele>
        <time>2023-10-31T16:11:50Z</time>
      </trkpt>
      <trkpt lat="46.50578" lon="-0.79084">
        <ele>85</ele>
        <time>2023-10-31T16:18:23Z</time>
      </trkpt>
      <trkpt lat="46.51062" lon="-0.78844">
        <ele>86</ele>
        <time>2023-10-31T16:29:46Z</time>
      </trkpt>
      <trkpt lat="46.51251" lon="-0.79273">
        <ele>80</ele>
        <time>2023-10-31T16:37:33Z</time>
      </trkpt>
      <trkpt lat="46.51393" lon="-0.78938">
        <ele>72</ele>
        <time>2023-10-31T16:43:35Z</time>
      </trkpt>
      <trkpt lat="46.51487" lon="-0.78921">
        <ele>70</ele>
        <time>2023-10-31T16:45:41Z</time>
      </trkpt>
      <trkpt lat="46.51417" lon="-0.78732">
        <ele>57</ele>
        <time>2023-10-31T16:48:58Z</time>
      </trkpt>
      <trkpt lat="46.5147" lon="-0.78449">
        <ele>49</ele>
        <time>2023-10-31T16:53:28Z</time>
      </trkpt>
      <trkpt lat="46.51777" lon="-0.78329">
        <ele>51</ele>
        <time>2023-10-31T17:00:32Z</time>
      </trkpt>
      <trkpt lat="46.5196" lon="-0.78415">
        <ele>57</ele>
        <time>2023-10-31T17:04:48Z</time>
      </trkpt>
      <trkpt lat="46.52102" lon="-0.7875">
        <ele>75</ele>
        <time>2023-10-31T17:10:50Z</time>
      </trkpt>
      <trkpt lat="46.52297" lon="-0.78741">
        <ele>90</ele>
        <time>2023-10-31T17:15:10Z</time>
      </trkpt>
      <trkpt lat="46.52946" lon="-0.7778">
        <ele>95</ele>
        <time>2023-10-31T17:35:46Z</time>
      </trkpt>
      <trkpt lat="46.53136" lon="-0.77462">
        <ele>78</ele>
        <time>2023-10-31T17:42:13Z</time>
      </trkpt>
      <trkpt lat="46.53273" lon="-0.77386">
        <ele>55</ele>
        <time>2023-10-31T17:45:29Z</time>
      </trkpt>
      <trkpt lat="46.53245" lon="-0.77544">
        <ele>61</ele>
        <time>2023-10-31T17:47:59Z</time>
      </trkpt>
      <trkpt lat="46.53372" lon="-0.77335">
        <ele>51</ele>
        <time>2023-10-31T17:52:15Z</time>
      </trkpt>
      <trkpt lat="46.53284" lon="-0.77222">
        <ele>62</ele>
        <time>2023-10-31T17:54:51Z</time>
      </trkpt>
      <trkpt lat="46.53052" lon="-0.77192">
        <ele>51</ele>
        <time>2023-10-31T18:00:02Z</time>
      </trkpt>
      <trkpt lat="46.53024" lon="-0.76942">
        <ele>51</ele>
        <time>2023-10-31T18:03:55Z</time>
      </trkpt>
      <trkpt lat="46.53108" lon="-0.76896">
        <ele>72</ele>
        <time>2023-10-31T18:05:54Z</time>
      </trkpt>
      <trkpt lat="46.53158" lon="-0.76712">
        <ele>85</ele>
        <time>2023-10-31T18:08:56Z</time>
      </trkpt>
      <trkpt lat="46.53" lon="-0.76564">
        <ele>93</ele>
        <time>2023-10-31T18:13:07Z</time>
      </trkpt>
      <trkpt lat="46.52936" lon="-0.76727">
        <ele>63</ele>
        <time>2023-10-31T18:15:59Z</time>
      </trkpt>
      <trkpt lat="46.5275" lon="-0.76835">
        <ele>51</ele>
        <time>2023-10-31T18:20:27Z</time>
      </trkpt>
      <trkpt lat="46.52677" lon="-0.76753">
        <ele>47</ele>
        <time>2023-10-31T18:22:30Z</time>
      </trkpt>
      <trkpt lat="46.52919" lon="-0.76431">
        <ele>56</ele>
        <time>2023-10-31T18:29:47Z</time>
      </trkpt>
      <trkpt lat="46.5295" lon="-0.76299">
        <ele>57</ele>
        <time>2023-10-31T18:31:55Z</time>
      </trkpt>
      <trkpt lat="46.52905" lon="-0.76115">
        <ele>44</ele>
        <time>2023-10-31T18:34:55Z</time>
      </trkpt>
      <trkpt lat="46.53077" lon="-0.76079">
        <ele>46</ele>
        <time>2023-10-31T18:38:47Z</time>
      </trkpt>
      <trkpt lat="46.53196" lon="-0.76243">
        <ele>66</ele>
        <time>2023-10-31T18:42:26Z</time>
      </trkpt>
      <trkpt lat="46.53389" lon="-0.76049">
        <ele>49</ele>
        <time>2023-10-31T18:47:39Z</time>
      </trkpt>
      <trkpt lat="46.53575" lon="-0.761">
        <ele>48</ele>
        <time>2023-10-31T18:51:51Z</time>
      </trkpt>
      <trkpt lat="46.53793" lon="-0.75901">
        <ele>59</ele>
        <time>2023-10-31T18:57:35Z</time>
      </trkpt>
      <trkpt lat="46.5406" lon="-0.75855">
        <ele>70</ele>
        <time>2023-10-31T19:03:34Z</time>
      </trkpt>
      <trkpt lat="46.5439" lon="-0.75559">
        <ele>65</ele>
        <time>2023-10-31T19:12:11Z</time>
      </trkpt>
      <trkpt lat="46.54678" lon="-0.75191">
        <ele>63</ele>
        <time>2023-10-31T19:20:43Z</time>
      </trkpt>
      <trkpt lat="46.55106" lon="-0.75242">
        <ele>76</ele>
        <time>2023-10-31T19:30:16Z</time>
      </trkpt>
      <trkpt lat="46.55264" lon="-0.75344">
        <ele>77</ele>
        <time>2023-10-31T19:34:06Z</time>
      </trkpt>
      <trkpt lat="46.55552" lon="-0.75314">
        <ele>80</ele>
        <time>2023-10-31T19:40:32Z</time>
      </trkpt>
      <trkpt lat="46.55692" lon="-0.75472">
        <ele>79</ele>
        <time>2023-10-31T19:44:28Z</time>
      </trkpt>
      <trkpt lat="46.55945" lon="-0.75492">
        <ele>87</ele>
        <time>2023-10-31T19:50:06Z</time>
      </trkpt>
      <trkpt lat="46.55885" lon="-0.75686">
        <ele>87</ele>
        <time>2023-10-31T19:53:21Z</time>
      </trkpt>
      <trkpt lat="46.56081" lon="-0.7586">
        <ele>89</ele>
        <time>2023-10-31T19:58:28Z</time>
      </trkpt>
      <trkpt lat="46.55938" lon="-0.76309">
        <ele>81</ele>
        <time>2023-10-31T20:06:02Z</time>
      </trkpt>
      <trkpt lat="46.55955" lon="-0.76656">
        <ele>77</ele>
        <time>2023-10-31T20:11:21Z</time>
      </trkpt>
      <trkpt lat="46.56124" lon="-0.76595">
        <ele>77</ele>
        <time>2023-10-31T20:15:14Z</time>
      </trkpt>
      <trkpt lat="46.56286" lon="-0.76689">
        <ele>79</ele>
        <time>2023-10-31T20:19:06Z</time>
      </trkpt>
      <trkpt lat="46.5615" lon="-0.77061">
        <ele>72</ele>
        <time>2023-10-31T20:25:33Z</time>
      </trkpt>
      <trkpt lat="46.56048" lon="-0.77187">
        <ele>67</ele>
        <time>2023-10-31T20:28:31Z</time>
      </trkpt>
      <trkpt lat="46.56017" lon="-0.77172">
        <ele>66</ele>
        <time>2023-10-31T20:29:15Z</time>
      </trkpt>
      <trkpt lat="46.55955" lon="-0.77174">
        <ele>67</ele>
        <time>2023-10-31T20:30:38Z</time>
      </trkpt>
      <trkpt lat="46.55843" lon="-0.77104">
        <ele>69</ele>
        <time>2023-10-31T20:33:20Z</time>
      </trkpt>
      <trkpt lat="46.55775" lon="-0.77089">
        <ele>68</ele>
        <time>2023-10-31T20:34:52Z</time>
      </trkpt>
      <trkpt lat="46.55619" lon="-0.77007">
        <ele>64</ele>
        <time>2023-10-31T20:38:34Z</time>
      </trkpt>
      <trkpt lat="46.55566" lon="-0.77009">
        <ele>65</ele>
        <time>2023-10-31T20:39:44Z</time>
      </trkpt>
      <trkpt lat="46.55533" lon="-0.77091">
        <ele>65</ele>
        <time>2023-10-31T20:41:12Z</time>
      </trkpt>
      <trkpt lat="46.5538" lon="-0.7723">
        <ele>74</ele>
        <time>2023-10-31T20:45:12Z</time>
      </trkpt>
      <trkpt lat="46.55303" lon="-0.77224">
        <ele>76</ele>
        <time>2023-10-31T20:46:55Z</time>
      </trkpt>
      <trkpt lat="46.55257" lon="-0.77258">
        <ele>74</ele>
        <time>2023-10-31T20:48:04Z</time>
      </trkpt>
      <trkpt lat="46.55204" lon="-0.7732">
        <ele>73</ele>
        <time>2023-10-31T20:49:35Z</time>
      </trkpt>
      <trkpt lat="46.55161" lon="-0.77355">
        <ele>71</ele>
        <time>2023-10-31T20:50:41Z</time>
      </trkpt>
      <trkpt lat="46.5511" lon="-0.77417">
        <ele>72</ele>
        <time>2023-10-31T20:52:09Z</time>
      </trkpt>
      <trkpt lat="46.5458" lon="-0.77237">
        <ele>88</ele>
        <time>2023-10-31T21:04:16Z</time>
      </trkpt>
      <trkpt lat="46.54629" lon="-0.77483">
        <ele>88</ele>
        <time>2023-10-31T21:08:11Z</time>
      </trkpt>
      <trkpt lat="46.54648" lon="-0.77548">
        <ele>89</ele>
        <time>2023-10-31T21:09:15Z</time>
      </trkpt>
      <trkpt lat="46.5462" lon="-0.77752">
        <ele>84</ele>
        <time>2023-10-31T21:12:26Z</time>
      </trkpt>
      <trkpt lat="46.54558" lon="-0.77895">
        <ele>79</ele>
        <time>2023-10-31T21:15:02Z</time>
      </trkpt>
      <trkpt lat="46.54555" lon="-0.77979">
        <ele>77</ele>
        <time>2023-10-31T21:16:19Z</time>
      </trkpt>
      <trkpt lat="46.54606" lon="-0.78151">
        <ele>54</ele>
        <time>2023-10-31T21:19:11Z</time>
      </trkpt>
      <trkpt lat="46.54505" lon="-0.78217">
        <ele>54</ele>
        <time>2023-10-31T21:21:38Z</time>
      </trkpt>
      <trkpt lat="46.54466" lon="-0.78217">
        <ele>54</ele>
        <time>2023-10-31T21:22:30Z</time>
      </trkpt>
      <trkpt lat="46.54428" lon="-0.78172">
        <ele>53</ele>
        <time>2023-10-31T21:23:36Z</time>
      </trkpt>
      <trkpt lat="46.54416" lon="-0.78114">
        <ele>54</ele>
        <time>2023-10-31T21:24:31Z</time>
      </trkpt>
      <trkpt lat="46.54325" lon="-0.78112">
        <ele>48</ele>
        <time>2023-10-31T21:26:33Z</time>
      </trkpt>
      <trkpt lat="46.54288" lon="-0.78095">
        <ele>64</ele>
        <time>2023-10-31T21:27:25Z</time>
      </trkpt>
      <trkpt lat="46.54276" lon="-0.78114">
        <ele>69</ele>
        <time>2023-10-31T21:27:48Z</time>
      </trkpt>
      <trkpt lat="46.54291" lon="-0.78187">
        <ele>64</ele>
        <time>2023-10-31T21:28:58Z</time>
      </trkpt>
      <trkpt lat="46.54277" lon="-0.78245">
        <ele>72</ele>
        <time>2023-10-31T21:29:55Z</time>
      </trkpt>
      <trkpt lat="46.54326" lon="-0.78312">
        <ele>68</ele>
        <time>2023-10-31T21:31:24Z</time>
      </trkpt>
      <trkpt lat="46.54369" lon="-0.78342">
        <ele>69</ele>
        <time>2023-10-31T21:32:28Z</time>
      </trkpt>
      <trkpt lat="46.54491" lon="-0.78393">
        <ele>71</ele>
        <time>2023-10-31T21:35:18Z</time>
      </trkpt>
      <trkpt lat="46.54552" lon="-0.78387">
        <ele>61</ele>
        <time>2023-10-31T21:36:39Z</time>
      </trkpt>
      <trkpt lat="46.5457" lon="-0.78397">
        <ele>60</ele>
        <time>2023-10-31T21:37:05Z</time>
      </trkpt>
      <trkpt lat="46.54568" lon="-0.78445">
        <ele>65</ele>
        <time>2023-10-31T21:37:49Z</time>
      </trkpt>
      <trkpt lat="46.54496" lon="-0.78608">
        <ele>81</ele>
        <time>2023-10-31T21:40:47Z</time>
      </trkpt>
      <trkpt lat="46.54459" lon="-0.78648">
        <ele>85</ele>
        <time>2023-10-31T21:41:48Z</time>
      </trkpt>
      <trkpt lat="46.54412" lon="-0.78629">
        <ele>95</ele>
        <time>2023-10-31T21:42:53Z</time>
      </trkpt>
      <trkpt lat="46.5432" lon="-0.7864">
        <ele>101</ele>
        <time>2023-10-31T21:44:57Z</time>
      </trkpt>
      <trkpt lat="46.54206" lon="-0.78715">
        <ele>104</ele>
        <time>2023-10-31T21:47:44Z</time>
      </trkpt>
      <trkpt lat="46.5408" lon="-0.78857">
        <ele>106</ele>
        <time>2023-10-31T21:51:16Z</time>
      </trkpt>
      <trkpt lat="46.53889" lon="-0.79123">
        <ele>113</ele>
        <time>2023-10-31T21:57:09Z</time>
      </trkpt>
      <trkpt lat="46.54066" lon="-0.79314">
        <ele>121</ele>
        <time>2023-10-31T22:02:03Z</time>
      </trkpt>
      <trkpt lat="46.54105" lon="-0.79378">
        <ele>123</ele>
        <time>2023-10-31T22:03:22Z</time>
      </trkpt>
      <trkpt lat="46.54348" lon="-0.79687">
        <ele>119</ele>
        <time>2023-10-31T22:10:33Z</time>
      </trkpt>
      <trkpt lat="46.54378" lon="-0.79721">
        <ele>119</ele>
        <time>2023-10-31T22:11:23Z</time>
      </trkpt>
      <trkpt lat="46.54496" lon="-0.79942">
        <ele>119</ele>
        <time>2023-10-31T22:15:40Z</time>
      </trkpt>
      <trkpt lat="46.54509" lon="-0.7999">
        <ele>120</ele>
        <time>2023-10-31T22:16:28Z</time>
      </trkpt>
      <trkpt lat="46.54583" lon="-0.80105">
        <ele>117</ele>
        <time>2023-10-31T22:18:52Z</time>
      </trkpt>
      <trkpt lat="46.54682" lon="-0.80206">
        <ele>114</ele>
        <time>2023-10-31T22:21:34Z</time>
      </trkpt>
      <trkpt lat="46.54694" lon="-0.80239">
        <ele>116</ele>
        <time>2023-10-31T22:22:08Z</time>
      </trkpt>
      <trkpt lat="46.54713" lon="-0.80307">
        <ele>118</ele>
        <time>2023-10-31T22:23:15Z</time>
      </trkpt>
      <trkpt lat="46.54733" lon="-0.80333">
        <ele>119</ele>
        <time>2023-10-31T22:23:51Z</time>
      </trkpt>
      <trkpt lat="46.54733" lon="-0.80378">
        <ele>118</ele>
        <time>2023-10-31T22:24:32Z</time>
      </trkpt>
      <trkpt lat="46.5477" lon="-0.80526">
        <ele>116</ele>
        <time>2023-10-31T22:26:57Z</time>
      </trkpt>
      <trkpt lat="46.54809" lon="-0.80543">
        <ele>116</ele>
        <time>2023-10-31T22:27:51Z</time>
      </trkpt>
      <trkpt lat="46.54807" lon="-0.80582">
        <ele>116</ele>
        <time>2023-10-31T22:28:27Z</time>
      </trkpt>
      <trkpt lat="46.54828" lon="-0.80631">
        <ele>116</ele>
        <time>2023-10-31T22:29:20Z</time>
      </trkpt>
      <trkpt lat="46.54952" lon="-0.80848">
        <ele>114</ele>
        <time>2023-10-31T22:33:39Z</time>
      </trkpt>
      <trkpt lat="46.54972" lon="-0.80932">
        <ele>112</ele>
        <time>2023-10-31T22:35:01Z</time>
      </trkpt>
      <trkpt lat="46.54987" lon="-0.81236">
        <ele>117</ele>
        <time>2023-10-31T22:39:40Z</time>
      </trkpt>
      <trkpt lat="46.55003" lon="-0.81236">
        <ele>117</ele>
        <time>2023-10-31T22:40:02Z</time>
      </trkpt>
      <trkpt lat="46.5503" lon="-0.81193">
        <ele>117</ele>
        <time>2023-10-31T22:40:55Z</time>
      </trkpt>
      <trkpt lat="46.55234" lon="-0.81108">
        <ele>106</ele>
        <time>2023-10-31T22:45:38Z</time>
      </trkpt>
      <trkpt lat="46.55294" lon="-0.8102">
        <ele>106</ele>
        <time>2023-10-31T22:47:32Z</time>
      </trkpt>
      <trkpt lat="46.55362" lon="-0.80955">
        <ele>107</ele>
        <time>2023-10-31T22:49:21Z</time>
      </trkpt>
      <trkpt lat="46.55418" lon="-0.80927">
        <ele>110</ele>
        <time>2023-10-31T22:50:40Z</time>
      </trkpt>
      <trkpt lat="46.55462" lon="-0.80934">
        <ele>107</ele>
        <time>2023-10-31T22:51:39Z</time>
      </trkpt>
      <trkpt lat="46.55592" lon="-0.80829">
        <ele>96</ele>
        <time>2023-10-31T22:54:57Z</time>
      </trkpt>
      <trkpt lat="46.55632" lon="-0.80811">
        <ele>95</ele>
        <time>2023-10-31T22:55:53Z</time>
      </trkpt>
      <trkpt lat="46.55688" lon="-0.80884">
        <ele>98</ele>
        <time>2023-10-31T22:57:33Z</time>
      </trkpt>
      <trkpt lat="46.55737" lon="-0.80781">
        <ele>92</ele>
        <time>2023-10-31T22:59:28Z</time>
      </trkpt>
      <trkpt lat="46.55862" lon="-0.80629">
        <ele>84</ele>
        <time>2023-10-31T23:03:06Z</time>
      </trkpt>
      <trkpt lat="46.55883" lon="-0.80747">
        <ele>84</ele>
        <time>2023-10-31T23:04:57Z</time>
      </trkpt>
      <trkpt lat="46.55932" lon="-0.80867">
        <ele>86</ele>
        <time>2023-10-31T23:07:06Z</time>
      </trkpt>
      <trkpt lat="46.55923" lon="-0.80981">
        <ele>87</ele>
        <time>2023-10-31T23:08:51Z</time>
      </trkpt>
      <trkpt lat="46.55935" lon="-0.81084">
        <ele>88</ele>
        <time>2023-10-31T23:10:27Z</time>
      </trkpt>
      <trkpt lat="46.56026" lon="-0.81251">
        <ele>94</ele>
        <time>2023-10-31T23:13:42Z</time>
      </trkpt>
      <trkpt lat="46.5611" lon="-0.81429">
        <ele>95</ele>
        <time>2023-10-31T23:17:00Z</time>
      </trkpt>
      <trkpt lat="46.56147" lon="-0.81558">
        <ele>97</ele>
        <time>2023-10-31T23:19:09Z</time>
      </trkpt>
      <trkpt lat="46.5637" lon="-0.81711">
        <ele>95</ele>
        <time>2023-10-31T23:24:38Z</time>
      </trkpt>
      <trkpt lat="46.56398" lon="-0.81711">
        <ele>94</ele>
        <time>2023-10-31T23:25:15Z</time>
      </trkpt>
      <trkpt lat="46.56446" lon="-0.8168">
        <ele>94</ele>
        <time>2023-10-31T23:26:25Z</time>
      </trkpt>
      <trkpt lat="46.56473" lon="-0.8168">
        <ele>95</ele>
        <time>2023-10-31T23:27:01Z</time>
      </trkpt>
      <trkpt lat="46.56584" lon="-0.81783">
        <ele>103</ele>
        <time>2023-10-31T23:29:57Z</time>
      </trkpt>
      <trkpt lat="46.56706" lon="-0.81876">
        <ele>107</ele>
        <time>2023-10-31T23:33:01Z</time>
      </trkpt>
      <trkpt lat="46.56803" lon="-0.8197">
        <ele>99</ele>
        <time>2023-10-31T23:35:36Z</time>
      </trkpt>
      <trkpt lat="46.56879" lon="-0.82022">
        <ele>94</ele>
        <time>2023-10-31T23:37:28Z</time>
      </trkpt>
      <trkpt lat="46.56911" lon="-0.82077">
        <ele>94</ele>
        <time>2023-10-31T23:38:34Z</time>
      </trkpt>
      <trkpt lat="46.56945" lon="-0.82107">
        <ele>95</ele>
        <time>2023-10-31T23:39:27Z</time>
      </trkpt>
      <trkpt lat="46.56991" lon="-0.82107">
        <ele>96</ele>
        <time>2023-10-31T23:40:29Z</time>
      </trkpt>
      <trkpt lat="46.57042" lon="-0.82148">
        <ele>99</ele>
        <time>2023-10-31T23:41:47Z</time>
      </trkpt>
      <trkpt lat="46.57038" lon="-0.82296">
        <ele>108</ele>
        <time>2023-10-31T23:44:02Z</time>
      </trkpt>
      <trkpt lat="46.57057" lon="-0.82554">
        <ele>115</ele>
        <time>2023-10-31T23:48:00Z</time>
      </trkpt>
      <trkpt lat="46.57099" lon="-0.82743">
        <ele>120</ele>
        <time>2023-10-31T23:51:03Z</time>
      </trkpt>
      <trkpt lat="46.56954" lon="-0.82747">
        <ele>125</ele>
        <time>2023-10-31T23:54:16Z</time>
      </trkpt>
      <trkpt lat="46.56929" lon="-0.82743">
        <ele>126</ele>
        <time>2023-10-31T23:54:50Z</time>
      </trkpt>
      <trkpt lat="46.56885" lon="-0.82755">
        <ele>126</ele>
        <time>2023-10-31T23:55:49Z</time>
      </trkpt>
      <trkpt lat="46.56663" lon="-0.82771">
        <ele>125</ele>
        <time>2023-11-01T00:00:46Z</time>
      </trkpt>
      <trkpt lat="46.5665" lon="-0.82753">
        <ele>125</ele>
        <time>2023-11-01T00:01:10Z</time>
      </trkpt>
      <trkpt lat="46.56548" lon="-0.82792">
        <ele>124</ele>
        <time>2023-11-01T00:03:31Z</time>
      </trkpt>
      <trkpt lat="46.56461" lon="-0.82779">
        <ele>124</ele>
        <time>2023-11-01T00:05:28Z</time>
      </trkpt>
      <trkpt lat="46.56354" lon="-0.8273">
        <ele>125</ele>
        <time>2023-11-01T00:07:57Z</time>
      </trkpt>
      <trkpt lat="46.56281" lon="-0.82854">
        <ele>125</ele>
        <time>2023-11-01T00:10:27Z</time>
      </trkpt>
      <trkpt lat="46.56176" lon="-0.82987">
        <ele>128</ele>
        <time>2023-11-01T00:13:33Z</time>
      </trkpt>
      <trkpt lat="46.56076" lon="-0.83161">
        <ele>119</ele>
        <time>2023-11-01T00:17:01Z</time>
      </trkpt>
      <trkpt lat="46.55965" lon="-0.8329">
        <ele>114</ele>
        <time>2023-11-01T00:20:10Z</time>
      </trkpt>
      <trkpt lat="46.55909" lon="-0.83298">
        <ele>112</ele>
        <time>2023-11-01T00:21:26Z</time>
      </trkpt>
      <trkpt lat="46.55883" lon="-0.83311">
        <ele>110</ele>
        <time>2023-11-01T00:22:02Z</time>
      </trkpt>
      <trkpt lat="46.55781" lon="-0.83436">
        <ele>115</ele>
        <time>2023-11-01T00:25:00Z</time>
      </trkpt>
      <trkpt lat="46.55759" lon="-0.83459">
        <ele>116</ele>
        <time>2023-11-01T00:25:36Z</time>
      </trkpt>
      <trkpt lat="46.55726" lon="-0.83582">
        <ele>113</ele>
        <time>2023-11-01T00:27:38Z</time>
      </trkpt>
      <trkpt lat="46.55681" lon="-0.83637">
        <ele>113</ele>
        <time>2023-11-01T00:28:56Z</time>
      </trkpt>
      <trkpt lat="46.55672" lon="-0.83766">
        <ele>108</ele>
        <time>2023-11-01T00:30:55Z</time>
      </trkpt>
      <trkpt lat="46.55611" lon="-0.838">
        <ele>109</ele>
        <time>2023-11-01T00:32:22Z</time>
      </trkpt>
      <trkpt lat="46.5557" lon="-0.83841">
        <ele>107</ele>
        <time>2023-11-01T00:33:29Z</time>
      </trkpt>
      <trkpt lat="46.55545" lon="-0.8391">
        <ele>104</ele>
        <time>2023-11-01T00:34:40Z</time>
      </trkpt>
      <trkpt lat="46.55585" lon="-0.84097">
        <ele>100</ele>
        <time>2023-11-01T00:37:40Z</time>
      </trkpt>
      <trkpt lat="46.55749" lon="-0.84354">
        <ele>95</ele>
        <time>2023-11-01T00:43:02Z</time>
      </trkpt>
      <trkpt lat="46.5588" lon="-0.84412">
        <ele>93</ele>
        <time>2023-11-01T00:46:04Z</time>
      </trkpt>
      <trkpt lat="46.55893" lon="-0.84511">
        <ele>93</ele>
        <time>2023-11-01T00:47:37Z</time>
      </trkpt>
      <trkpt lat="46.5594" lon="-0.84607">
        <ele>95</ele>
        <time>2023-11-01T00:49:25Z</time>
      </trkpt>
      <trkpt lat="46.55992" lon="-0.84665">
        <ele>97</ele>
        <time>2023-11-01T00:50:52Z</time>
      </trkpt>
      <trkpt lat="46.5605" lon="-0.84762">
        <ele>96</ele>
        <time>2023-11-01T00:52:50Z</time>
      </trkpt>
      <trkpt lat="46.56116" lon="-0.84835">
        <ele>93</ele>
        <time>2023-11-01T00:54:41Z</time>
      </trkpt>
      <trkpt lat="46.5614" lon="-0.84938">
        <ele>91</ele>
        <time>2023-11-01T00:56:21Z</time>
      </trkpt>
      <trkpt lat="46.56138" lon="-0.85077">
        <ele>91</ele>
        <time>2023-11-01T00:58:28Z</time>
      </trkpt>
      <trkpt lat="46.56191" lon="-0.85189">
        <ele>94</ele>
        <time>2023-11-01T01:00:33Z</time>
      </trkpt>
      <trkpt lat="46.5623" lon="-0.85315">
        <ele>98</ele>
        <time>2023-11-01T01:02:40Z</time>
      </trkpt>
      <trkpt lat="46.56269" lon="-0.85416">
        <ele>101</ele>
        <time>2023-11-01T01:04:26Z</time>
      </trkpt>
      <trkpt lat="46.56342" lon="-0.85521">
        <ele>103</ele>
        <time>2023-11-01T01:06:43Z</time>
      </trkpt>
      <trkpt lat="46.56408" lon="-0.85566">
        <ele>104</ele>
        <time>2023-11-01T01:08:20Z</time>
      </trkpt>
      <trkpt lat="46.56472" lon="-0.85665">
        <ele>107</ele>
        <time>2023-11-01T01:10:25Z</time>
      </trkpt>
      <trkpt lat="46.56488" lon="-0.85704">
        <ele>108</ele>
        <time>2023-11-01T01:11:07Z</time>
      </trkpt>
      <trkpt lat="46.56352" lon="-0.85725">
        <ele>106</ele>
        <time>2023-11-01T01:14:09Z</time>
      </trkpt>
      <trkpt lat="46.56187" lon="-0.85948">
        <ele>107</ele>
        <time>2023-11-01T01:19:10Z</time>
      </trkpt>
      <trkpt lat="46.56101" lon="-0.86041">
        <ele>104</ele>
        <time>2023-11-01T01:21:33Z</time>
      </trkpt>
      <trkpt lat="46.56067" lon="-0.86092">
        <ele>104</ele>
        <time>2023-11-01T01:22:38Z</time>
      </trkpt>
      <trkpt lat="46.5589" lon="-0.86135">
        <ele>102</ele>
        <time>2023-11-01T01:26:38Z</time>
      </trkpt>
      <trkpt lat="46.55766" lon="-0.86107">
        <ele>100</ele>
        <time>2023-11-01T01:29:25Z</time>
      </trkpt>
      <trkpt lat="46.55701" lon="-0.86165">
        <ele>101</ele>
        <time>2023-11-01T01:31:07Z</time>
      </trkpt>
      <trkpt lat="46.55695" lon="-0.86249">
        <ele>100</ele>
        <time>2023-11-01T01:32:24Z</time>
      </trkpt>
      <trkpt lat="46.55709" lon="-0.86307">
        <ele>100</ele>
        <time>2023-11-01T01:33:21Z</time>
      </trkpt>
      <trkpt lat="46.55701" lon="-0.86365">
        <ele>98</ele>
        <time>2023-11-01T01:34:15Z</time>
      </trkpt>
      <trkpt lat="46.55656" lon="-0.86341">
        <ele>98</ele>
        <time>2023-11-01T01:35:19Z</time>
      </trkpt>
      <trkpt lat="46.55601" lon="-0.86317">
        <ele>99</ele>
        <time>2023-11-01T01:36:36Z</time>
      </trkpt>
      <trkpt lat="46.5548" lon="-0.8639">
        <ele>99</ele>
        <time>2023-11-01T01:39:30Z</time>
      </trkpt>
      <trkpt lat="46.55389" lon="-0.86388">
        <ele>95</ele>
        <time>2023-11-01T01:41:32Z</time>
      </trkpt>
      <trkpt lat="46.55334" lon="-0.86474">
        <ele>92</ele>
        <time>2023-11-01T01:43:20Z</time>
      </trkpt>
      <trkpt lat="46.55259" lon="-0.86427">
        <ele>88</ele>
        <time>2023-11-01T01:45:09Z</time>
      </trkpt>
      <trkpt lat="46.55232" lon="-0.86425">
        <ele>86</ele>
        <time>2023-11-01T01:45:45Z</time>
      </trkpt>
      <trkpt lat="46.55234" lon="-0.86474">
        <ele>85</ele>
        <time>2023-11-01T01:46:30Z</time>
      </trkpt>
      <trkpt lat="46.55248" lon="-0.86599">
        <ele>86</ele>
        <time>2023-11-01T01:48:26Z</time>
      </trkpt>
      <trkpt lat="46.55284" lon="-0.8659">
        <ele>88</ele>
        <time>2023-11-01T01:49:15Z</time>
      </trkpt>
      <trkpt lat="46.55328" lon="-0.86633">
        <ele>92</ele>
        <time>2023-11-01T01:50:25Z</time>
      </trkpt>
      <trkpt lat="46.55347" lon="-0.86687">
        <ele>92</ele>
        <time>2023-11-01T01:51:21Z</time>
      </trkpt>
      <trkpt lat="46.55389" lon="-0.86751">
        <ele>89</ele>
        <time>2023-11-01T01:52:42Z</time>
      </trkpt>
      <trkpt lat="46.55451" lon="-0.86762">
        <ele>92</ele>
        <time>2023-11-01T01:54:06Z</time>
      </trkpt>
      <trkpt lat="46.55473" lon="-0.86781">
        <ele>93</ele>
        <time>2023-11-01T01:54:40Z</time>
      </trkpt>
      <trkpt lat="46.55489" lon="-0.86832">
        <ele>93</ele>
        <time>2023-11-01T01:55:31Z</time>
      </trkpt>
      <trkpt lat="46.55486" lon="-0.86882">
        <ele>93</ele>
        <time>2023-11-01T01:56:17Z</time>
      </trkpt>
      <trkpt lat="46.55507" lon="-0.87068">
        <ele>86</ele>
        <time>2023-11-01T01:59:10Z</time>
      </trkpt>
      <trkpt lat="46.55535" lon="-0.87178">
        <ele>83</ele>
        <time>2023-11-01T02:00:58Z</time>
      </trkpt>
      <trkpt lat="46.55656" lon="-0.87358">
        <ele>81</ele>
        <time>2023-11-01T02:04:49Z</time>
      </trkpt>
      <trkpt lat="46.5562" lon="-0.87405">
        <ele>77</ele>
        <time>2023-11-01T02:05:53Z</time>
      </trkpt>
      <trkpt lat="46.55604" lon="-0.87476">
        <ele>74</ele>
        <time>2023-11-01T02:07:02Z</time>
      </trkpt>
      <trkpt lat="46.5558" lon="-0.87519">
        <ele>73</ele>
        <time>2023-11-01T02:07:53Z</time>
      </trkpt>
      <trkpt lat="46.55585" lon="-0.87556">
        <ele>72</ele>
        <time>2023-11-01T02:08:27Z</time>
      </trkpt>
      <trkpt lat="46.55622" lon="-0.87541">
        <ele>73</ele>
        <time>2023-11-01T02:09:19Z</time>
      </trkpt>
      <trkpt lat="46.55645" lon="-0.87682">
        <ele>71</ele>
        <time>2023-11-01T02:11:32Z</time>
      </trkpt>
      <trkpt lat="46.55757" lon="-0.87854">
        <ele>75</ele>
        <time>2023-11-01T02:15:09Z</time>
      </trkpt>
      <trkpt lat="46.55791" lon="-0.87875">
        <ele>78</ele>
        <time>2023-11-01T02:15:58Z</time>
      </trkpt>
      <trkpt lat="46.55791" lon="-0.87955">
        <ele>74</ele>
        <time>2023-11-01T02:17:12Z</time>
      </trkpt>
      <trkpt lat="46.55805" lon="-0.88008">
        <ele>71</ele>
        <time>2023-11-01T02:18:04Z</time>
      </trkpt>
      <trkpt lat="46.55828" lon="-0.88047">
        <ele>68</ele>
        <time>2023-11-01T02:18:51Z</time>
      </trkpt>
      <trkpt lat="46.55873" lon="-0.8809">
        <ele>64</ele>
        <time>2023-11-01T02:20:03Z</time>
      </trkpt>
      <trkpt lat="46.55914" lon="-0.88214">
        <ele>60</ele>
        <time>2023-11-01T02:22:09Z</time>
      </trkpt>
      <trkpt lat="46.55912" lon="-0.88277">
        <ele>58</ele>
        <time>2023-11-01T02:23:07Z</time>
      </trkpt>
      <trkpt lat="46.55918" lon="-0.88328">
        <ele>57</ele>
        <time>2023-11-01T02:23:54Z</time>
      </trkpt>
      <trkpt lat="46.55963" lon="-0.8848">
        <ele>60</ele>
        <time>2023-11-01T02:26:26Z</time>
      </trkpt>
      <trkpt lat="46.56072" lon="-0.88626">
        <ele>58</ele>
        <time>2023-11-01T02:29:44Z</time>
      </trkpt>
      <trkpt lat="46.56113" lon="-0.88809">
        <ele>58</ele>
        <time>2023-11-01T02:32:41Z</time>
      </trkpt>
      <trkpt lat="46.56196" lon="-0.8901">
        <ele>57</ele>
        <time>2023-11-01T02:36:16Z</time>
      </trkpt>
      <trkpt lat="46.56252" lon="-0.89083">
        <ele>54</ele>
        <time>2023-11-01T02:37:56Z</time>
      </trkpt>
      <trkpt lat="46.56309" lon="-0.8924">
        <ele>56</ele>
        <time>2023-11-01T02:40:39Z</time>
      </trkpt>
      <trkpt lat="46.56392" lon="-0.89435">
        <ele>53</ele>
        <time>2023-11-01T02:44:09Z</time>
      </trkpt>
      <trkpt lat="46.56399" lon="-0.89467">
        <ele>52</ele>
        <time>2023-11-01T02:44:40Z</time>
      </trkpt>
      <trkpt lat="46.56414" lon="-0.89474">
        <ele>51</ele>
        <time>2023-11-01T02:45:01Z</time>
      </trkpt>
      <trkpt lat="46.56405" lon="-0.89575">
        <ele>49</ele>
        <time>2023-11-01T02:46:35Z</time>
      </trkpt>
      <trkpt lat="46.5639" lon="-0.8959">
        <ele>49</ele>
        <time>2023-11-01T02:46:59Z</time>
      </trkpt>
      <trkpt lat="46.56382" lon="-0.89646">
        <ele>50</ele>
        <time>2023-11-01T02:47:51Z</time>
      </trkpt>
      <trkpt lat="46.56367" lon="-0.89699">
        <ele>50</ele>
        <time>2023-11-01T02:48:44Z</time>
      </trkpt>
      <trkpt lat="46.56373" lon="-0.89766">
        <ele>50</ele>
        <time>2023-11-01T02:49:46Z</time>
      </trkpt>
      <trkpt lat="46.5637" lon="-0.89944">
        <ele>50</ele>
        <time>2023-11-01T02:52:29Z</time>
      </trkpt>
      <trkpt lat="46.56336" lon="-0.90077">
        <ele>48</ele>
        <time>2023-11-01T02:54:40Z</time>
      </trkpt>
      <trkpt lat="46.56333" lon="-0.90133">
        <ele>49</ele>
        <time>2023-11-01T02:55:31Z</time>
      </trkpt>
      <trkpt lat="46.56264" lon="-0.90259">
        <ele>49</ele>
        <time>2023-11-01T02:57:59Z</time>
      </trkpt>
      <trkpt lat="46.56261" lon="-0.90336">
        <ele>53</ele>
        <time>2023-11-01T02:59:10Z</time>
      </trkpt>
      <trkpt lat="46.56213" lon="-0.90652">
        <ele>55</ele>
        <time>2023-11-01T03:04:07Z</time>
      </trkpt>
      <trkpt lat="46.56216" lon="-0.90776">
        <ele>57</ele>
        <time>2023-11-01T03:06:00Z</time>
      </trkpt>
      <trkpt lat="46.56156" lon="-0.90858">
        <ele>57</ele>
        <time>2023-11-01T03:07:50Z</time>
      </trkpt>
      <trkpt lat="46.561" lon="-0.90916">
        <ele>56</ele>
        <time>2023-11-01T03:09:22Z</time>
      </trkpt>
      <trkpt lat="46.56088" lon="-0.91047">
        <ele>58</ele>
        <time>2023-11-01T03:11:23Z</time>
      </trkpt>
      <trkpt lat="46.56103" lon="-0.91109">
        <ele>60</ele>
        <time>2023-11-01T03:12:24Z</time>
      </trkpt>
      <trkpt lat="46.56126" lon="-0.91317">
        <ele>60</ele>
        <time>2023-11-01T03:15:37Z</time>
      </trkpt>
      <trkpt lat="46.56205" lon="-0.91476">
        <ele>62</ele>
        <time>2023-11-01T03:18:37Z</time>
      </trkpt>
      <trkpt lat="46.5614" lon="-0.91523">
        <ele>58</ele>
        <time>2023-11-01T03:20:14Z</time>
      </trkpt>
      <trkpt lat="46.5614" lon="-0.91772">
        <ele>60</ele>
        <time>2023-11-01T03:24:02Z</time>
      </trkpt>
      <trkpt lat="46.56197" lon="-0.92087">
        <ele>56</ele>
        <time>2023-11-01T03:29:01Z</time>
      </trkpt>
      <trkpt lat="46.56452" lon="-0.92338">
        <ele>69</ele>
        <time>2023-11-01T03:35:52Z</time>
      </trkpt>
      <trkpt lat="46.56562" lon="-0.92592">
        <ele>75</ele>
        <time>2023-11-01T03:40:27Z</time>
      </trkpt>
      <trkpt lat="46.56573" lon="-0.92598">
        <ele>75</ele>
        <time>2023-11-01T03:40:43Z</time>
      </trkpt>
      <trkpt lat="46.56666" lon="-0.92459">
        <ele>76</ele>
        <time>2023-11-01T03:43:41Z</time>
      </trkpt>
      <trkpt lat="46.56694" lon="-0.92396">
        <ele>77</ele>
        <time>2023-11-01T03:44:50Z</time>
      </trkpt>
      <trkpt lat="46.56874" lon="-0.92399">
        <ele>77</ele>
        <time>2023-11-01T03:48:50Z</time>
      </trkpt>
      <trkpt lat="46.57087" lon="-0.92557">
        <ele>75</ele>
        <time>2023-11-01T03:54:09Z</time>
      </trkpt>
      <trkpt lat="46.57129" lon="-0.92575">
        <ele>73</ele>
        <time>2023-11-01T03:55:08Z</time>
      </trkpt>
      <trkpt lat="46.57171" lon="-0.92575">
        <ele>71</ele>
        <time>2023-11-01T03:56:04Z</time>
      </trkpt>
      <trkpt lat="46.57217" lon="-0.92551">
        <ele>69</ele>
        <time>2023-11-01T03:57:09Z</time>
      </trkpt>
      <trkpt lat="46.57311" lon="-0.92514">
        <ele>69</ele>
        <time>2023-11-01T03:59:19Z</time>
      </trkpt>
      <trkpt lat="46.57495" lon="-0.9242">
        <ele>77</ele>
        <time>2023-11-01T04:03:39Z</time>
      </trkpt>
      <trkpt lat="46.57517" lon="-0.92497">
        <ele>77</ele>
        <time>2023-11-01T04:04:56Z</time>
      </trkpt>
      <trkpt lat="46.57538" lon="-0.9251">
        <ele>77</ele>
        <time>2023-11-01T04:05:26Z</time>
      </trkpt>
      <trkpt lat="46.57717" lon="-0.92457">
        <ele>77</ele>
        <time>2023-11-01T04:09:30Z</time>
      </trkpt>
      <trkpt lat="46.57746" lon="-0.92465">
        <ele>76</ele>
        <time>2023-11-01T04:10:09Z</time>
      </trkpt>
      <trkpt lat="46.57938" lon="-0.9262">
        <ele>70</ele>
        <time>2023-11-01T04:15:02Z</time>
      </trkpt>
      <trkpt lat="46.57982" lon="-0.92665">
        <ele>67</ele>
        <time>2023-11-01T04:16:14Z</time>
      </trkpt>
      <trkpt lat="46.58121" lon="-0.92826">
        <ele>69</ele>
        <time>2023-11-01T04:20:11Z</time>
      </trkpt>
      <trkpt lat="46.5824" lon="-0.92888">
        <ele>72</ele>
        <time>2023-11-01T04:23:00Z</time>
      </trkpt>
      <trkpt lat="46.58358" lon="-0.92969">
        <ele>74</ele>
        <time>2023-11-01T04:25:54Z</time>
      </trkpt>
      <trkpt lat="46.58525" lon="-0.9301">
        <ele>78</ele>
        <time>2023-11-01T04:29:40Z</time>
      </trkpt>
      <trkpt lat="46.58545" lon="-0.93062">
        <ele>79</ele>
        <time>2023-11-01T04:30:34Z</time>
      </trkpt>
      <trkpt lat="46.58579" lon="-0.93105">
        <ele>80</ele>
        <time>2023-11-01T04:31:35Z</time>
      </trkpt>
      <trkpt lat="46.58663" lon="-0.93156">
        <ele>83</ele>
        <time>2023-11-01T04:33:36Z</time>
      </trkpt>
      <trkpt lat="46.58724" lon="-0.93167">
        <ele>83</ele>
        <time>2023-11-01T04:34:58Z</time>
      </trkpt>
      <trkpt lat="46.5877" lon="-0.93199">
        <ele>84</ele>
        <time>2023-11-01T04:36:06Z</time>
      </trkpt>
      <trkpt lat="46.58771" lon="-0.93184">
        <ele>84</ele>
        <time>2023-11-01T04:36:20Z</time>
      </trkpt>
      <trkpt lat="46.58964" lon="-0.93323">
        <ele>92</ele>
        <time>2023-11-01T04:41:07Z</time>
      </trkpt>
      <trkpt lat="46.5906" lon="-0.93229">
        <ele>94</ele>
        <time>2023-11-01T04:43:42Z</time>
      </trkpt>
      <trkpt lat="46.59154" lon="-0.93379">
        <ele>98</ele>
        <time>2023-11-01T04:46:48Z</time>
      </trkpt>
      <trkpt lat="46.59206" lon="-0.93338">
        <ele>98</ele>
        <time>2023-11-01T04:48:07Z</time>
      </trkpt>
      <trkpt lat="46.59293" lon="-0.93242">
        <ele>100</ele>
        <time>2023-11-01T04:50:33Z</time>
      </trkpt>
      <trkpt lat="46.59356" lon="-0.93268">
        <ele>100</ele>
        <time>2023-11-01T04:52:00Z</time>
      </trkpt>
      <trkpt lat="46.5937" lon="-0.93291">
        <ele>100</ele>
        <time>2023-11-01T04:52:28Z</time>
      </trkpt>
      <trkpt lat="46.59417" lon="-0.93388">
        <ele>97</ele>
        <time>2023-11-01T04:54:17Z</time>
      </trkpt>
      <trkpt lat="46.59516" lon="-0.93308">
        <ele>97</ele>
        <time>2023-11-01T04:56:48Z</time>
      </trkpt>
      <trkpt lat="46.59557" lon="-0.93283">
        <ele>97</ele>
        <time>2023-11-01T04:57:47Z</time>
      </trkpt>
      <trkpt lat="46.59607" lon="-0.93263">
        <ele>98</ele>
        <time>2023-11-01T04:58:57Z</time>
      </trkpt>
      <trkpt lat="46.5965" lon="-0.93268">
        <ele>99</ele>
        <time>2023-11-01T04:59:54Z</time>
      </trkpt>
      <trkpt lat="46.59703" lon="-0.93253">
        <ele>99</ele>
        <time>2023-11-01T05:01:06Z</time>
      </trkpt>
      <trkpt lat="46.59729" lon="-0.93212">
        <ele>100</ele>
        <time>2023-11-01T05:01:57Z</time>
      </trkpt>
      <trkpt lat="46.59766" lon="-0.93193">
        <ele>100</ele>
        <time>2023-11-01T05:02:50Z</time>
      </trkpt>
      <trkpt lat="46.59797" lon="-0.93124">
        <ele>101</ele>
        <time>2023-11-01T05:04:05Z</time>
      </trkpt>
      <trkpt lat="46.59833" lon="-0.93081">
        <ele>102</ele>
        <time>2023-11-01T05:05:07Z</time>
      </trkpt>
      <trkpt lat="46.5985" lon="-0.93068">
        <ele>103</ele>
        <time>2023-11-01T05:05:33Z</time>
      </trkpt>
      <trkpt lat="46.60039" lon="-0.9319">
        <ele>110</ele>
        <time>2023-11-01T05:10:09Z</time>
      </trkpt>
      <trkpt lat="46.60046" lon="-0.93214">
        <ele>111</ele>
        <time>2023-11-01T05:10:33Z</time>
      </trkpt>
      <trkpt lat="46.60156" lon="-0.93098">
        <ele>111</ele>
        <time>2023-11-01T05:13:34Z</time>
      </trkpt>
      <trkpt lat="46.60243" lon="-0.92922">
        <ele>111</ele>
        <time>2023-11-01T05:16:53Z</time>
      </trkpt>
      <trkpt lat="46.60302" lon="-0.92862">
        <ele>110</ele>
        <time>2023-11-01T05:18:29Z</time>
      </trkpt>
      <trkpt lat="46.6034" lon="-0.92862">
        <ele>110</ele>
        <time>2023-11-01T05:19:20Z</time>
      </trkpt>
      <trkpt lat="46.60598" lon="-0.92682">
        <ele>117</ele>
        <time>2023-11-01T05:25:41Z</time>
      </trkpt>
      <trkpt lat="46.6061" lon="-0.9268">
        <ele>117</ele>
        <time>2023-11-01T05:25:58Z</time>
      </trkpt>
      <trkpt lat="46.60725" lon="-0.92484">
        <ele>122</ele>
        <time>2023-11-01T05:29:54Z</time>
      </trkpt>
      <trkpt lat="46.60742" lon="-0.92472">
        <ele>123</ele>
        <time>2023-11-01T05:30:19Z</time>
      </trkpt>
      <trkpt lat="46.60798" lon="-0.92547">
        <ele>120</ele>
        <time>2023-11-01T05:32:01Z</time>
      </trkpt>
      <trkpt lat="46.60907" lon="-0.92474">
        <ele>122</ele>
        <time>2023-11-01T05:34:41Z</time>
      </trkpt>
      <trkpt lat="46.60968" lon="-0.92448">
        <ele>122</ele>
        <time>2023-11-01T05:36:06Z</time>
      </trkpt>
      <trkpt lat="46.60994" lon="-0.92484">
        <ele>121</ele>
        <time>2023-11-01T05:36:53Z</time>
      </trkpt>
      <trkpt lat="46.61024" lon="-0.92478">
        <ele>121</ele>
        <time>2023-11-01T05:37:34Z</time>
      </trkpt>
      <trkpt lat="46.61095" lon="-0.92587">
        <ele>123</ele>
        <time>2023-11-01T05:39:52Z</time>
      </trkpt>
      <trkpt lat="46.6113" lon="-0.92669">
        <ele>125</ele>
        <time>2023-11-01T05:41:20Z</time>
      </trkpt>
      <trkpt lat="46.6114" lon="-0.92759">
        <ele>130</ele>
        <time>2023-11-01T05:42:44Z</time>
      </trkpt>
      <trkpt lat="46.61164" lon="-0.92802">
        <ele>131</ele>
        <time>2023-11-01T05:43:34Z</time>
      </trkpt>
      <trkpt lat="46.61242" lon="-0.92838">
        <ele>130</ele>
        <time>2023-11-01T05:45:24Z</time>
      </trkpt>
      <trkpt lat="46.61298" lon="-0.92901">
        <ele>130</ele>
        <time>2023-11-01T05:46:58Z</time>
      </trkpt>
      <trkpt lat="46.61388" lon="-0.92978">
        <ele>127</ele>
        <time>2023-11-01T05:49:17Z</time>
      </trkpt>
      <trkpt lat="46.6149" lon="-0.93145">
        <ele>126</ele>
        <time>2023-11-01T05:52:42Z</time>
      </trkpt>
      <trkpt lat="46.61669" lon="-0.93285">
        <ele>119</ele>
        <time>2023-11-01T05:57:13Z</time>
      </trkpt>
      <trkpt lat="46.61725" lon="-0.93298">
        <ele>118</ele>
        <time>2023-11-01T05:58:29Z</time>
      </trkpt>
      <trkpt lat="46.61751" lon="-0.93293">
        <ele>117</ele>
        <time>2023-11-01T05:59:04Z</time>
      </trkpt>
      <trkpt lat="46.61728" lon="-0.93328">
        <ele>118</ele>
        <time>2023-11-01T05:59:48Z</time>
      </trkpt>
      <trkpt lat="46.61703" lon="-0.93414">
        <ele>119</ele>
        <time>2023-11-01T06:01:14Z</time>
      </trkpt>
      <trkpt lat="46.61718" lon="-0.93512">
        <ele>116</ele>
        <time>2023-11-01T06:02:46Z</time>
      </trkpt>
      <trkpt lat="46.61714" lon="-0.93806">
        <ele>115</ele>
        <time>2023-11-01T06:07:16Z</time>
      </trkpt>
      <trkpt lat="46.61736" lon="-0.94001">
        <ele>112</ele>
        <time>2023-11-01T06:10:17Z</time>
      </trkpt>
      <trkpt lat="46.61665" lon="-0.94021">
        <ele>114</ele>
        <time>2023-11-01T06:11:53Z</time>
      </trkpt>
      <trkpt lat="46.61622" lon="-0.94072">
        <ele>111</ele>
        <time>2023-11-01T06:13:07Z</time>
      </trkpt>
      <trkpt lat="46.61599" lon="-0.94126">
        <ele>110</ele>
        <time>2023-11-01T06:14:06Z</time>
      </trkpt>
      <trkpt lat="46.6155" lon="-0.94139">
        <ele>110</ele>
        <time>2023-11-01T06:15:12Z</time>
      </trkpt>
      <trkpt lat="46.61462" lon="-0.94248">
        <ele>106</ele>
        <time>2023-11-01T06:17:46Z</time>
      </trkpt>
      <trkpt lat="46.61314" lon="-0.94233">
        <ele>103</ele>
        <time>2023-11-01T06:21:04Z</time>
      </trkpt>
      <trkpt lat="46.61269" lon="-0.9424">
        <ele>102</ele>
        <time>2023-11-01T06:22:05Z</time>
      </trkpt>
      <trkpt lat="46.61319" lon="-0.94313">
        <ele>105</ele>
        <time>2023-11-01T06:23:39Z</time>
      </trkpt>
      <trkpt lat="46.61363" lon="-0.94398">
        <ele>107</ele>
        <time>2023-11-01T06:25:17Z</time>
      </trkpt>
      <trkpt lat="46.61407" lon="-0.94381">
        <ele>107</ele>
        <time>2023-11-01T06:26:17Z</time>
      </trkpt>
      <trkpt lat="46.61434" lon="-0.94375">
        <ele>107</ele>
        <time>2023-11-01T06:26:54Z</time>
      </trkpt>
      <trkpt lat="46.61457" lon="-0.94381">
        <ele>108</ele>
        <time>2023-11-01T06:27:25Z</time>
      </trkpt>
      <trkpt lat="46.61488" lon="-0.94407">
        <ele>110</ele>
        <time>2023-11-01T06:28:13Z</time>
      </trkpt>
      <trkpt lat="46.61515" lon="-0.94474">
        <ele>112</ele>
        <time>2023-11-01T06:29:24Z</time>
      </trkpt>
      <trkpt lat="46.61541" lon="-0.94566">
        <ele>113</ele>
        <time>2023-11-01T06:30:55Z</time>
      </trkpt>
      <trkpt lat="46.61566" lon="-0.94746">
        <ele>116</ele>
        <time>2023-11-01T06:33:43Z</time>
      </trkpt>
      <trkpt lat="46.61581" lon="-0.94778">
        <ele>115</ele>
        <time>2023-11-01T06:34:19Z</time>
      </trkpt>
      <trkpt lat="46.61612" lon="-0.94787">
        <ele>114</ele>
        <time>2023-11-01T06:35:01Z</time>
      </trkpt>
      <trkpt lat="46.61637" lon="-0.94855">
        <ele>113</ele>
        <time>2023-11-01T06:36:12Z</time>
      </trkpt>
      <trkpt lat="46.61672" lon="-0.94933">
        <ele>113</ele>
        <time>2023-11-01T06:37:37Z</time>
      </trkpt>
      <trkpt lat="46.61743" lon="-0.95016">
        <ele>117</ele>
        <time>2023-11-01T06:39:39Z</time>
      </trkpt>
      <trkpt lat="46.61771" lon="-0.95027">
        <ele>119</ele>
        <time>2023-11-01T06:40:17Z</time>
      </trkpt>
      <trkpt lat="46.6179" lon="-0.95046">
        <ele>120</ele>
        <time>2023-11-01T06:40:48Z</time>
      </trkpt>
      <trkpt lat="46.6182" lon="-0.951">
        <ele>122</ele>
        <time>2023-11-01T06:41:52Z</time>
      </trkpt>
      <trkpt lat="46.61845" lon="-0.9516">
        <ele>123</ele>
        <time>2023-11-01T06:42:56Z</time>
      </trkpt>
      <trkpt lat="46.61879" lon="-0.95218">
        <ele>122</ele>
        <time>2023-11-01T06:44:06Z</time>
      </trkpt>
      <trkpt lat="46.61927" lon="-0.95267">
        <ele>122</ele>
        <time>2023-11-01T06:45:24Z</time>
      </trkpt>
      <trkpt lat="46.61979" lon="-0.95289">
        <ele>121</ele>
        <time>2023-11-01T06:46:37Z</time>
      </trkpt>
      <trkpt lat="46.61994" lon="-0.95298">
        <ele>121</ele>
        <time>2023-11-01T06:46:58Z</time>
      </trkpt>
      <trkpt lat="46.62039" lon="-0.95471">
        <ele>117</ele>
        <time>2023-11-01T06:49:48Z</time>
      </trkpt>
      <trkpt lat="46.62035" lon="-0.95493">
        <ele>117</ele>
        <time>2023-11-01T06:50:09Z</time>
      </trkpt>
      <trkpt lat="46.62107" lon="-0.95703">
        <ele>117</ele>
        <time>2023-11-01T06:53:44Z</time>
      </trkpt>
      <trkpt lat="46.62117" lon="-0.95774">
        <ele>116</ele>
        <time>2023-11-01T06:54:50Z</time>
      </trkpt>
      <trkpt lat="46.62094" lon="-0.95875">
        <ele>115</ele>
        <time>2023-11-01T06:56:28Z</time>
      </trkpt>
      <trkpt lat="46.62095" lon="-0.95907">
        <ele>114</ele>
        <time>2023-11-01T06:56:57Z</time>
      </trkpt>
      <trkpt lat="46.6215" lon="-0.95935">
        <ele>115</ele>
        <time>2023-11-01T06:58:15Z</time>
      </trkpt>
      <trkpt lat="46.6219" lon="-0.95963">
        <ele>116</ele>
        <time>2023-11-01T06:59:14Z</time>
      </trkpt>
      <trkpt lat="46.6224" lon="-0.96036">
        <ele>117</ele>
        <time>2023-11-01T07:00:49Z</time>
      </trkpt>
      <trkpt lat="46.6229" lon="-0.96057">
        <ele>118</ele>
        <time>2023-11-01T07:01:58Z</time>
      </trkpt>
      <trkpt lat="46.62362" lon="-0.96061">
        <ele>119</ele>
        <time>2023-11-01T07:03:34Z</time>
      </trkpt>
      <trkpt lat="46.62406" lon="-0.9613">
        <ele>120</ele>
        <time>2023-11-01T07:05:00Z</time>
      </trkpt>
      <trkpt lat="46.62484" lon="-0.9592">
        <ele>121</ele>
        <time>2023-11-01T07:08:39Z</time>
      </trkpt>
      <trkpt lat="46.62502" lon="-0.95825">
        <ele>122</ele>
        <time>2023-11-01T07:10:10Z</time>
      </trkpt>
      <trkpt lat="46.62535" lon="-0.95765">
        <ele>122</ele>
        <time>2023-11-01T07:11:20Z</time>
      </trkpt>
      <trkpt lat="46.62545" lon="-0.95707">
        <ele>122</ele>
        <time>2023-11-01T07:12:15Z</time>
      </trkpt>
      <trkpt lat="46.62535" lon="-0.95632">
        <ele>122</ele>
        <time>2023-11-01T07:13:25Z</time>
      </trkpt>
      <trkpt lat="46.62542" lon="-0.95566">
        <ele>122</ele>
        <time>2023-11-01T07:14:26Z</time>
      </trkpt>
      <trkpt lat="46.62557" lon="-0.9551">
        <ele>122</ele>
        <time>2023-11-01T07:15:21Z</time>
      </trkpt>
      <trkpt lat="46.62589" lon="-0.95437">
        <ele>125</ele>
        <time>2023-11-01T07:16:41Z</time>
      </trkpt>
      <trkpt lat="46.62607" lon="-0.95381">
        <ele>125</ele>
        <time>2023-11-01T07:17:37Z</time>
      </trkpt>
      <trkpt lat="46.62683" lon="-0.95244">
        <ele>125</ele>
        <time>2023-11-01T07:20:19Z</time>
      </trkpt>
      <trkpt lat="46.62701" lon="-0.95192">
        <ele>124</ele>
        <time>2023-11-01T07:21:12Z</time>
      </trkpt>
      <trkpt lat="46.62745" lon="-0.95171">
        <ele>125</ele>
        <time>2023-11-01T07:22:14Z</time>
      </trkpt>
      <trkpt lat="46.62773" lon="-0.95169">
        <ele>125</ele>
        <time>2023-11-01T07:22:51Z</time>
      </trkpt>
      <trkpt lat="46.62816" lon="-0.95156">
        <ele>124</ele>
        <time>2023-11-01T07:23:50Z</time>
      </trkpt>
      <trkpt lat="46.62885" lon="-0.94995">
        <ele>122</ele>
        <time>2023-11-01T07:26:44Z</time>
      </trkpt>
      <trkpt lat="46.62924" lon="-0.94941">
        <ele>121</ele>
        <time>2023-11-01T07:27:55Z</time>
      </trkpt>
      <trkpt lat="46.62947" lon="-0.94879">
        <ele>121</ele>
        <time>2023-11-01T07:29:00Z</time>
      </trkpt>
      <trkpt lat="46.63071" lon="-0.94632">
        <ele>124</ele>
        <time>2023-11-01T07:33:40Z</time>
      </trkpt>
      <trkpt lat="46.63149" lon="-0.94529">
        <ele>117</ele>
        <time>2023-11-01T07:36:01Z</time>
      </trkpt>
      <trkpt lat="46.63201" lon="-0.94529">
        <ele>115</ele>
        <time>2023-11-01T07:37:10Z</time>
      </trkpt>
      <trkpt lat="46.63258" lon="-0.94474">
        <ele>110</ele>
        <time>2023-11-01T07:38:42Z</time>
      </trkpt>
      <trkpt lat="46.63305" lon="-0.94439">
        <ele>107</ele>
        <time>2023-11-01T07:39:52Z</time>
      </trkpt>
      <trkpt lat="46.63369" lon="-0.94413">
        <ele>103</ele>
        <time>2023-11-01T07:41:21Z</time>
      </trkpt>
      <trkpt lat="46.63407" lon="-0.94383">
        <ele>99</ele>
        <time>2023-11-01T07:42:18Z</time>
      </trkpt>
      <trkpt lat="46.63416" lon="-0.94398">
        <ele>99</ele>
        <time>2023-11-01T07:42:37Z</time>
      </trkpt>
      <trkpt lat="46.63457" lon="-0.94403">
        <ele>98</ele>
        <time>2023-11-01T07:43:32Z</time>
      </trkpt>
      <trkpt lat="46.63595" lon="-0.94506">
        <ele>105</ele>
        <time>2023-11-01T07:46:58Z</time>
      </trkpt>
      <trkpt lat="46.63623" lon="-0.94555">
        <ele>104</ele>
        <time>2023-11-01T07:47:57Z</time>
      </trkpt>
      <trkpt lat="46.63747" lon="-0.94581">
        <ele>97</ele>
        <time>2023-11-01T07:50:44Z</time>
      </trkpt>
      <trkpt lat="46.63783" lon="-0.94572">
        <ele>97</ele>
        <time>2023-11-01T07:51:33Z</time>
      </trkpt>
      <trkpt lat="46.63939" lon="-0.94877">
        <ele>91</ele>
        <time>2023-11-01T07:57:21Z</time>
      </trkpt>
      <trkpt lat="46.63964" lon="-0.94935">
        <ele>92</ele>
        <time>2023-11-01T07:58:24Z</time>
      </trkpt>
      <trkpt lat="46.64001" lon="-0.95085">
        <ele>104</ele>
        <time>2023-11-01T08:00:50Z</time>
      </trkpt>
      <trkpt lat="46.64007" lon="-0.95154">
        <ele>104</ele>
        <time>2023-11-01T08:01:54Z</time>
      </trkpt>
      <trkpt lat="46.64001" lon="-0.95255">
        <ele>102</ele>
        <time>2023-11-01T08:03:27Z</time>
      </trkpt>
      <trkpt lat="46.64085" lon="-0.95171">
        <ele>98</ele>
        <time>2023-11-01T08:05:43Z</time>
      </trkpt>
      <trkpt lat="46.64141" lon="-0.95119">
        <ele>94</ele>
        <time>2023-11-01T08:07:11Z</time>
      </trkpt>
      <trkpt lat="46.64244" lon="-0.95036">
        <ele>87</ele>
        <time>2023-11-01T08:09:48Z</time>
      </trkpt>
      <trkpt lat="46.64266" lon="-0.94993">
        <ele>84</ele>
        <time>2023-11-01T08:10:37Z</time>
      </trkpt>
      <trkpt lat="46.6427" lon="-0.94958">
        <ele>82</ele>
        <time>2023-11-01T08:11:10Z</time>
      </trkpt>
      <trkpt lat="46.64245" lon="-0.94862">
        <ele>80</ele>
        <time>2023-11-01T08:12:44Z</time>
      </trkpt>
      <trkpt lat="46.6422" lon="-0.94808">
        <ele>79</ele>
        <time>2023-11-01T08:13:44Z</time>
      </trkpt>
      <trkpt lat="46.64198" lon="-0.9478">
        <ele>80</ele>
        <time>2023-11-01T08:14:23Z</time>
      </trkpt>
      <trkpt lat="46.64195" lon="-0.9475">
        <ele>77</ele>
        <time>2023-11-01T08:14:50Z</time>
      </trkpt>
      <trkpt lat="46.64199" lon="-0.94729">
        <ele>75</ele>
        <time>2023-11-01T08:15:10Z</time>
      </trkpt>
      <trkpt lat="46.64283" lon="-0.94645">
        <ele>65</ele>
        <time>2023-11-01T08:17:26Z</time>
      </trkpt>
      <trkpt lat="46.64295" lon="-0.94607">
        <ele>64</ele>
        <time>2023-11-01T08:18:05Z</time>
      </trkpt>
      <trkpt lat="46.643" lon="-0.94549">
        <ele>64</ele>
        <time>2023-11-01T08:18:58Z</time>
      </trkpt>
      <trkpt lat="46.64289" lon="-0.94439">
        <ele>65</ele>
        <time>2023-11-01T08:20:40Z</time>
      </trkpt>
      <trkpt lat="46.64289" lon="-0.94381">
        <ele>65</ele>
        <time>2023-11-01T08:21:33Z</time>
      </trkpt>
      <trkpt lat="46.64323" lon="-0.94285">
        <ele>66</ele>
        <time>2023-11-01T08:23:12Z</time>
      </trkpt>
      <trkpt lat="46.64367" lon="-0.94207">
        <ele>67</ele>
        <time>2023-11-01T08:24:45Z</time>
      </trkpt>
      <trkpt lat="46.64447" lon="-0.94087">
        <ele>67</ele>
        <time>2023-11-01T08:27:18Z</time>
      </trkpt>
      <trkpt lat="46.64599" lon="-0.93978">
        <ele>65</ele>
        <time>2023-11-01T08:31:04Z</time>
      </trkpt>
      <trkpt lat="46.64696" lon="-0.93856">
        <ele>63</ele>
        <time>2023-11-01T08:33:55Z</time>
      </trkpt>
      <trkpt lat="46.64787" lon="-0.9375">
        <ele>61</ele>
        <time>2023-11-01T08:36:31Z</time>
      </trkpt>
      <trkpt lat="46.64814" lon="-0.93753">
        <ele>61</ele>
        <time>2023-11-01T08:37:07Z</time>
      </trkpt>
      <trkpt lat="46.64935" lon="-0.93873">
        <ele>55</ele>
        <time>2023-11-01T08:40:22Z</time>
      </trkpt>
      <trkpt lat="46.65029" lon="-0.93989">
        <ele>56</ele>
        <time>2023-11-01T08:43:06Z</time>
      </trkpt>
      <trkpt lat="46.65089" lon="-0.93978">
        <ele>55</ele>
        <time>2023-11-01T08:44:27Z</time>
      </trkpt>
      <trkpt lat="46.6512" lon="-0.93984">
        <ele>56</ele>
        <time>2023-11-01T08:45:09Z</time>
      </trkpt>
      <trkpt lat="46.65239" lon="-0.93991">
        <ele>60</ele>
        <time>2023-11-01T08:47:48Z</time>
      </trkpt>
      <trkpt lat="46.65381" lon="-0.93517">
        <ele>51</ele>
        <time>2023-11-01T08:55:42Z</time>
      </trkpt>
      <trkpt lat="46.65416" lon="-0.93444">
        <ele>52</ele>
        <time>2023-11-01T08:57:03Z</time>
      </trkpt>
      <trkpt lat="46.65468" lon="-0.93482">
        <ele>50</ele>
        <time>2023-11-01T08:58:21Z</time>
      </trkpt>
      <trkpt lat="46.65521" lon="-0.93486">
        <ele>50</ele>
        <time>2023-11-01T08:59:32Z</time>
      </trkpt>
      <trkpt lat="46.65642" lon="-0.9363">
        <ele>51</ele>
        <time>2023-11-01T09:03:00Z</time>
      </trkpt>
      <trkpt lat="46.65686" lon="-0.93701">
        <ele>51</ele>
        <time>2023-11-01T09:04:28Z</time>
      </trkpt>
      <trkpt lat="46.65786" lon="-0.93776">
        <ele>51</ele>
        <time>2023-11-01T09:06:58Z</time>
      </trkpt>
      <trkpt lat="46.65809" lon="-0.9378">
        <ele>50</ele>
        <time>2023-11-01T09:07:29Z</time>
      </trkpt>
      <trkpt lat="46.65902" lon="-0.93753">
        <ele>50</ele>
        <time>2023-11-01T09:09:35Z</time>
      </trkpt>
      <trkpt lat="46.65955" lon="-0.93763">
        <ele>50</ele>
        <time>2023-11-01T09:10:47Z</time>
      </trkpt>
      <trkpt lat="46.6608" lon="-0.93896">
        <ele>46</ele>
        <time>2023-11-01T09:14:13Z</time>
      </trkpt>
      <trkpt lat="46.66207" lon="-0.9419">
        <ele>46</ele>
        <time>2023-11-01T09:19:31Z</time>
      </trkpt>
      <trkpt lat="46.66357" lon="-0.94105">
        <ele>49</ele>
        <time>2023-11-01T09:23:06Z</time>
      </trkpt>
      <trkpt lat="46.66098" lon="-0.93151">
        <ele>67</ele>
        <time>2023-11-01T09:38:46Z</time>
      </trkpt>
      <trkpt lat="46.66084" lon="-0.92875">
        <ele>73</ele>
        <time>2023-11-01T09:42:59Z</time>
      </trkpt>
      <trkpt lat="46.65909" lon="-0.92564">
        <ele>73</ele>
        <time>2023-11-01T09:49:07Z</time>
      </trkpt>
      <trkpt lat="46.65758" lon="-0.91941">
        <ele>73</ele>
        <time>2023-11-01T09:59:13Z</time>
      </trkpt>
      <trkpt lat="46.65684" lon="-0.91824">
        <ele>74</ele>
        <time>2023-11-01T10:01:38Z</time>
      </trkpt>
      <trkpt lat="46.65688" lon="-0.9163">
        <ele>74</ele>
        <time>2023-11-01T10:04:36Z</time>
      </trkpt>
      <trkpt lat="46.65615" lon="-0.9157">
        <ele>79</ele>
        <time>2023-11-01T10:06:28Z</time>
      </trkpt>
      <trkpt lat="46.65588" lon="-0.91409">
        <ele>77</ele>
        <time>2023-11-01T10:09:00Z</time>
      </trkpt>
      <trkpt lat="46.65655" lon="-0.91394">
        <ele>74</ele>
        <time>2023-11-01T10:10:30Z</time>
      </trkpt>
      <trkpt lat="46.65705" lon="-0.91502">
        <ele>74</ele>
        <time>2023-11-01T10:12:29Z</time>
      </trkpt>
      <trkpt lat="46.65718" lon="-0.91487">
        <ele>73</ele>
        <time>2023-11-01T10:12:52Z</time>
      </trkpt>
    </trkseg>
  </trk>
</gpx>